DB0WUN-13 Weather Reports


time (UTC)temp
C
wind
direction
speed
KPH
gust
KPH
rain 1hr
cm
rain 24hr
cm
rain mn
cm
humidity
%
barometer
mb
20260506014603 10 216 3.2 9.7 0.00 0.86 0.00 92 1007.3
20260506014501 10 198 4.8 9.7 0.00 0.86 0.00 92 1007.2
20260506014401 10 229 4.8 9.7 0.00 0.86 0.00 92 1007.3
20260506014256 10 217 4.8 9.7 0.00 0.86 0.00 92 1007.3
20260506014201 10 201 4.8 9.7 0.00 0.86 0.00 92 1007.2
20260506014052 10 195 4.8 9.7 0.00 0.86 0.00 92 1007.3
20260506013949 10 218 4.8 9.7 0.00 0.86 0.00 92 1007.3
20260506013850 10 242 3.2 9.7 0.00 0.86 0.00 92 1007.3
20260506013745 11 193 4.8 9.7 0.00 0.86 0.00 92 1007.3
20260506013645 10 235 4.8 9.7 0.00 0.86 0.00 92 1007.3
20260506013542 10 191 3.2 9.7 0.00 0.86 0.00 92 1007.3
20260506013437 10 215 3.2 11.3 0.00 0.86 0.00 92 1007.3
20260506013338 10 223 3.2 11.3 0.00 0.86 0.00 92 1007.3
20260506013236 10 217 4.8 11.3 0.00 0.86 0.00 92 1007.3
20260506013134 10 217 4.8 11.3 0.00 0.86 0.00 92 1007.4
20260506013034 10 216 4.8 11.3 0.00 0.86 0.00 92 1007.3
20260506012933 10 217 3.2 11.3 0.00 0.86 0.00 92 1007.3
20260506012831 11 217 4.8 11.3 0.00 0.86 0.00 92 1007.3
20260506012731 11 210 4.8 11.3 0.00 0.86 0.00 92 1007.3
20260506012631 10 248 4.8 11.3 0.00 0.86 0.00 92 1007.3
20260506012532 11 203 3.2 11.3 0.00 0.86 0.00 92 1007.3
20260506012429 11 217 3.2 9.7 0.00 0.86 0.00 92 1007.3
20260506012327 11 216 3.2 9.7 0.00 0.86 0.00 92 1007.3
20260506012226 11 195 3.2 9.7 0.00 0.86 0.00 92 1007.3
20260506012021 11 212 3.2 11.3 0.00 0.86 0.00 92 1007.4
20260506011919 11 208 3.2 11.3 0.00 0.86 0.00 92 1007.3
20260506011816 11 178 3.2 11.3 0.00 0.86 0.00 92 1007.3
20260506011714 11 210 3.2 11.3 0.00 0.86 0.00 92 1007.3
20260506011621 11 210 4.8 11.3 0.00 0.86 0.00 92 1007.3
20260506011518 11 217 4.8 11.3 0.00 0.86 0.00 92 1007.4
20260506011411 11 234 4.8 11.3 0.00 0.86 0.00 92 1007.3
20260506011312 11 245 4.8 11.3 0.00 0.86 0.00 92 1007.4
20260506011213 11 217 4.8 11.3 0.00 0.86 0.00 92 1007.4
20260506011016 11 217 4.8 11.3 0.00 0.86 0.00 91 1007.4
20260506010911 11 217 3.2 11.3 0.00 0.86 0.00 91 1007.5
20260506010808 11 217 3.2 11.3 0.00 0.86 0.00 91 1007.5
20260506010713 11 231 3.2 11.3 0.00 0.86 0.00 91 1007.4
20260506010514 11 216 3.2 8.0 0.00 0.86 0.00 91 1007.5
20260506010406 11 216 3.2 6.4 0.00 0.86 0.00 91 1007.5
20260506010306 11 215 3.2 6.4 0.00 0.86 0.00 91 1007.5
20260506010211 11 215 3.2 6.4 0.00 0.86 0.00 91 1007.5
20260506010012 11 216 3.2 6.4 0.00 0.86 0.00 91 1007.5
20260506005905 11 214 3.2 11.3 0.00 0.86 0.00 92 1007.4
20260506005807 11 214 3.2 11.3 0.00 0.86 0.00 92 1007.5
20260506005706 11 219 3.2 11.3 0.00 0.86 0.00 92 1007.6
20260506005559 11 217 3.2 11.3 0.00 0.86 0.00 92 1007.4
20260506005500 11 201 3.2 11.3 0.00 0.86 0.00 92 1007.4
20260506005401 11 198 3.2 11.3 0.00 0.86 0.00 91 1007.5
20260506005259 11 217 3.2 11.3 0.00 0.86 0.00 91 1007.5
20260506005212 11 194 3.2 11.3 0.00 0.86 0.00 92 1007.4
20260506005120 11 184 3.2 11.3 0.00 0.86 0.00 91 1007.5
20260506005033 11 217 3.2 11.3 0.00 0.86 0.00 91 1007.5
20260506004952 11 199 3.2 6.4 0.00 0.86 0.00 92 1007.6
20260506004922 11 216 3.2 6.4 0.00 0.86 0.00 92 1007.6
20260506004844 11 239 3.2 6.4 0.00 0.86 0.00 91 1007.6
20260506004547 11 239 3.2 6.4 0.00 0.86 0.00 91 1007.6
20260506004442 11 239 3.2 6.4 0.00 0.86 0.00 91 1007.6
20260506004350 11 240 3.2 6.4 0.00 0.86 0.00 91 1007.6
20260506004313 11 236 3.2 6.4 0.00 0.86 0.00 91 1007.6
20260506004222 11 239 3.2 6.4 0.00 0.86 0.00 91 1007.5
20260506004132 11 236 3.2 6.4 0.00 0.86 0.00 91 1007.6
20260506004044 11 217 3.2 6.4 0.00 0.86 0.00 91 1007.6
20260506004004 11 225 3.2 6.4 0.00 0.86 0.00 91 1007.6
20260506003921 11 250 3.2 6.4 0.00 0.86 0.00 91 1007.5
20260506003841 11 217 3.2 6.4 0.00 0.86 0.00 91 1007.5
20260506003522 11 217 3.2 6.4 0.00 0.86 0.00 91 1007.6
20260506003426 11 217 3.2 6.4 0.00 0.86 0.00 91 1007.7
20260506003319 11 217 3.2 6.4 0.00 0.86 0.00 91 1007.5
20260506003217 11 240 4.8 11.3 0.00 0.86 0.00 91 1007.6
20260506003124 11 219 4.8 11.3 0.00 0.86 0.00 91 1007.6
20260506003021 11 246 4.8 11.3 0.00 0.86 0.00 91 1007.6
20260506002924 11 216 4.8 11.3 0.00 0.86 0.00 91 1007.7
20260506002811 11 213 4.8 11.3 0.00 0.86 0.00 91 1007.7
20260506002708 11 231 6.4 11.3 0.00 0.86 0.00 91 1007.7
20260506002612 11 232 6.4 11.3 0.00 0.86 0.00 91 1007.7
20260506002514 11 217 6.4 11.3 0.00 0.86 0.00 92 1007.7
20260506002409 11 216 6.4 11.3 0.00 0.86 0.00 92 1007.7
20260506002305 11 230 6.4 11.3 0.00 0.86 0.00 92 1007.7
20260506002203 11 217 6.4 12.9 0.00 0.86 0.00 92 1007.8
20260506002105 11 231 6.4 14.5 0.00 0.86 0.00 92 1007.8
20260506002004 11 217 6.4 14.5 0.00 0.86 0.00 92 1007.9
20260506001904 11 235 6.4 14.5 0.00 0.86 0.00 92 1007.8
20260506001758 11 219 6.4 14.5 0.00 0.86 0.00 92 1007.8
20260506001657 11 248 6.4 14.5 0.00 0.86 0.00 92 1007.9
20260506001602 11 222 6.4 14.5 0.00 0.86 0.00 92 1007.8
20260506001455 11 229 6.4 14.5 0.00 0.86 0.00 92 1007.8
20260506001359 11 217 4.8 14.5 0.00 0.86 0.00 92 1007.8
20260506001255 11 217 4.8 14.5 0.00 0.86 0.00 92 1007.9
20260506001206 11 213 4.8 14.5 0.00 0.86 0.00 92 1007.8
20260506001017 11 217 3.2 12.9 0.00 0.86 0.00 92 1007.8
20260506000944 11 233 3.2 12.9 0.00 0.86 0.00 92 1007.8
20260506000907 11 216 3.2 8.0 0.00 0.86 0.00 92 1007.8
20260506000834 11 216 3.2 8.0 0.00 0.86 0.00 92 1007.8
20260506000545 11 217 1.6 6.4 0.00 0.86 0.00 92 1007.8
20260506000445 11 217 1.6 6.4 0.00 0.86 0.00 92 1007.8
20260506000348 11 217 1.6 6.4 0.00 0.86 0.00 92 1007.7
20260506000248 11 216 1.6 4.8 0.00 0.86 0.00 92 1007.8
20260506000141 11 219 1.6 4.8 0.00 0.86 0.00 92 1007.8
20260506000039 11 223 1.6 4.8 0.00 0.86 0.00 92 1007.8
20260505235938 11 223 1.6 4.8 0.00 0.86 0.00 92 1007.8
20260505235838 11 223 3.2 6.4 0.00 0.86 0.00 92 1007.8
20260505235735 11 223 3.2 6.4 0.00 0.86 0.00 92 1007.9
20260505235639 11 224 3.2 6.4 0.00 0.86 0.00 92 1007.9
20260505235534 11 229 3.2 8.0 0.00 0.86 0.00 92 1007.7
20260505235436 11 227 3.2 8.0 0.00 0.86 0.00 92 1007.8
20260505235333 11 227 3.2 8.0 0.00 0.86 0.00 92 1007.8
20260505235231 11 227 4.8 9.7 0.00 0.86 0.00 92 1007.8
20260505235128 11 227 4.8 9.7 0.00 0.86 0.00 92 1007.8
20260505235029 11 220 4.8 9.7 0.00 0.86 0.00 92 1007.9
20260505234930 11 219 4.8 9.7 0.00 0.86 0.00 92 1007.9
20260505234827 11 224 4.8 9.7 0.00 0.86 0.00 92 1007.9
20260505234728 11 240 4.8 9.7 0.00 0.86 0.00 92 1007.9
20260505234626 11 241 4.8 9.7 0.00 0.86 0.00 92 1007.9
20260505234529 11 234 4.8 9.7 0.00 0.86 0.00 92 1007.9
20260505234419 11 249 4.8 9.7 0.00 0.86 0.00 92 1007.9
20260505234323 11 251 4.8 9.7 0.00 0.86 0.00 92 1007.9
20260505234221 11 243 4.8 9.7 0.00 0.86 0.00 92 1008.0
20260505234125 11 234 4.8 9.7 0.00 0.86 0.00 92 1008.0
20260505234027 11 220 4.8 9.7 0.00 0.86 0.00 92 1008.0
20260505233920 11 235 4.8 9.7 0.00 0.86 0.00 92 1008.0
20260505233816 11 248 3.2 9.7 0.00 0.86 0.00 92 1008.0
20260505233717 11 218 3.2 8.0 0.00 0.86 0.00 92 1008.0
20260505233618 11 237 3.2 8.0 0.00 0.86 0.00 92 1008.0
20260505233527 11 233 3.2 8.0 0.00 0.86 0.00 92 1008.0
20260505233411 11 238 3.2 8.0 0.00 0.86 0.00 92 1007.9
20260505233312 11 242 3.2 8.0 0.00 0.86 0.00 92 1007.9
20260505233217 11 243 3.2 8.0 0.00 0.86 0.00 92 1007.9
20260505233128 11 236 3.2 8.0 0.00 0.86 0.00 92 1007.9
20260505233044 11 264 3.2 8.0 0.00 0.86 0.00 93 1007.9
20260505232955 11 227 3.2 8.0 0.00 0.86 0.00 93 1007.9
20260505232923 11 227 3.2 8.0 0.00 0.86 0.00 93 1007.9
20260505232846 11 216 3.2 8.0 0.00 0.86 0.00 93 1007.9
20260505232812 11 220 3.2 8.0 0.00 0.86 0.00 93 1007.9
20260505232518 11 241 3.2 8.0 0.00 0.86 0.00 93 1007.9
20260505232407 11 215 3.2 8.0 0.00 0.86 0.00 93 1007.9
20260505232305 11 214 3.2 8.0 0.00 0.86 0.00 93 1007.9
20260505232205 11 240 3.2 8.0 0.00 0.86 0.00 93 1007.9
20260505232105 11 234 3.2 8.0 0.00 0.86 0.00 93 1007.9
20260505232015 11 236 3.2 8.0 0.00 0.86 0.00 93 1007.9
20260505231908 11 220 3.2 8.0 0.00 0.86 0.00 93 1007.9
20260505231808 11 217 3.2 8.0 0.00 0.86 0.00 93 1007.9
20260505231707 11 217 3.2 8.0 0.00 0.86 0.00 93 1008.0
20260505231606 11 227 3.2 8.0 0.00 0.86 0.00 93 1007.9
20260505231515 11 227 3.2 8.0 0.00 0.86 0.00 93 1007.9
20260505231408 11 231 3.2 8.0 0.00 0.86 0.00 93 1007.9
20260505231302 11 229 3.2 8.0 0.00 0.86 0.00 93 1007.8
20260505231203 11 229 3.2 8.0 0.00 0.86 0.00 93 1007.9
20260505231106 11 248 3.2 6.4 0.00 0.86 0.00 93 1007.9
20260505231001 11 242 3.2 6.4 0.00 0.86 0.00 93 1007.9
20260505230856 11 239 3.2 6.4 0.00 0.86 0.00 93 1007.9
20260505230753 11 248 3.2 6.4 0.00 0.86 0.00 93 1007.9
20260505230658 11 257 3.2 6.4 0.00 0.86 0.00 93 1007.9
20260505230629 11 257 3.2 6.4 0.00 0.86 0.00 93 1007.9
20260505230523 11 266 3.2 6.4 0.00 0.86 0.00 93 1007.9
20260505230446 11 278 3.2 6.4 0.00 0.86 0.00 93 1007.9
20260505230413 11 251 3.2 6.4 0.00 0.86 0.00 93 1007.9
20260505230334 11 239 1.6 6.4 0.00 0.86 0.00 93 1007.9
20260505230255 11 239 1.6 6.4 0.00 0.86 0.00 93 1007.9
20260505225942 11 246 1.6 6.4 0.00 0.86 0.00 93 1007.8
20260505225838 11 258 1.6 6.4 0.00 0.86 0.00 93 1007.9
20260505225741 11 247 1.6 4.8 0.00 0.86 0.00 93 1007.9
20260505225641 11 247 1.6 4.8 0.00 0.86 0.00 93 1007.9
20260505225436 11 217 1.6 6.4 0.00 0.86 0.00 93 1007.9
20260505225334 11 217 1.6 6.4 0.00 0.86 0.00 93 1007.9
20260505225231 11 217 1.6 6.4 0.00 0.86 0.00 93 1008.0
20260505225133 11 217 1.6 6.4 0.00 0.86 0.00 93 1007.9
20260505224933 11 217 1.6 6.4 0.00 0.86 0.00 93 1007.9
20260505224832 11 217 1.6 6.4 0.00 0.86 0.00 93 1007.9
20260505224732 11 217 1.6 6.4 0.00 0.86 0.00 93 1007.9
20260505224637 11 217 1.6 6.4 0.00 0.86 0.00 93 1007.8
20260505224430 11 217 0.0 3.2 0.00 0.86 0.00 93 1007.9
20260505224330 11 217 0.0 3.2 0.00 0.86 0.00 93 1007.9
20260505224228 10 217 0.0 3.2 0.00 0.86 0.00 93 1007.8
20260505224126 11 217 0.0 3.2 0.00 0.86 0.00 93 1007.9
20260505223928 10 217 0.0 3.2 0.00 0.86 0.00 93 1007.8
20260505223827 10 217 0.0 3.2 0.00 0.86 0.00 93 1007.9
20260505223725 10 217 0.0 3.2 0.00 0.86 0.00 93 1007.8
20260505223624 10 217 0.0 3.2 0.00 0.86 0.00 93 1007.8
20260505223423 10 217 0.0 1.6 0.00 0.86 0.00 93 1007.9
20260505223321 10 217 0.0 1.6 0.00 0.86 0.00 93 1007.9
20260505223226 10 217 0.0 1.6 0.00 0.86 0.00 93 1007.9
20260505223123 10 217 0.0 1.6 0.00 0.86 0.00 93 1007.9
20260505223024 10 217 0.0 1.6 0.00 0.86 0.00 93 1008.0
20260505222921 10 217 0.0 1.6 0.00 0.86 0.00 93 1008.0
20260505222822 10 217 0.0 1.6 0.00 0.86 0.00 93 1007.9
20260505222716 10 217 0.0 1.6 0.00 0.86 0.00 93 1008.0
20260505222615 10 217 0.0 1.6 0.00 0.86 0.00 93 1007.9
20260505222414 10 217 0.0 1.6 0.00 0.86 0.00 93 1007.9
20260505222311 10 217 0.0 1.6 0.00 0.86 0.00 93 1007.9
20260505222205 10 217 0.0 1.6 0.00 0.86 0.00 93 1007.9
20260505222111 10 217 0.0 1.6 0.00 0.86 0.00 93 1007.9
20260505221907 10 217 0.0 1.6 0.00 0.86 0.00 93 1007.9
20260505221806 10 217 0.0 1.6 0.00 0.86 0.00 93 1007.9
20260505221706 10 217 0.0 1.6 0.00 0.86 0.00 93 1008.0
20260505221607 10 217 0.0 0.0 0.00 0.86 0.00 93 1007.9
20260505221407 10 217 0.0 0.0 0.00 0.86 0.00 93 1007.8
20260505221301 10 217 0.0 0.0 0.00 0.86 0.00 93 1007.9
20260505221158 10 217 0.0 0.0 0.00 0.86 0.00 93 1007.8
20260505221057 10 217 0.0 0.0 0.00 0.86 0.00 93 1007.8
20260505221005 10 217 0.0 0.0 0.00 0.86 0.00 93 1007.8
20260505220926 10 217 0.0 0.0 0.00 0.86 0.00 93 1007.8
20260505220851 10 217 0.0 0.0 0.00 0.86 0.00 93 1007.9
20260505220819 10 217 0.0 1.6 0.00 0.86 0.00 93 1007.9
20260505220748 10 217 0.0 1.6 0.00 0.86 0.00 93 1007.9
20260505220451 10 217 0.0 1.6 0.00 0.86 0.00 93 1007.9
20260505220349 10 217 0.0 1.6 0.00 0.86 0.00 93 1007.9
20260505220246 10 217 0.0 1.6 0.00 0.86 0.00 93 1007.9
20260505220146 10 217 0.0 1.6 0.00 0.86 0.00 93 1008.0
20260505220041 10 217 0.0 1.6 0.00 0.86 0.00 93 1008.0
20260505215940 10 217 0.0 1.6 0.00 0.86 0.86 93 1008.0
20260505215840 10 217 0.0 1.6 0.00 0.86 0.86 93 1008.0
20260505215740 10 217 0.0 1.6 0.00 0.86 0.86 93 1008.1
20260505215640 10 217 0.0 1.6 0.00 0.86 0.86 93 1008.0
20260505215539 10 217 0.0 3.2 0.00 0.86 0.86 93 1008.0
20260505215449 10 217 0.0 3.2 0.00 0.86 0.86 93 1008.0
20260505215341 10 217 0.0 3.2 0.00 0.86 0.86 93 1008.0
20260505215241 10 217 0.0 3.2 0.00 0.86 0.86 93 1008.0
20260505215134 10 217 0.0 3.2 0.00 0.86 0.86 93 1008.0
20260505215039 10 217 0.0 3.2 0.00 0.86 0.86 93 1008.0
20260505214937 10 217 1.6 3.2 0.00 0.86 0.86 93 1008.0
20260505214836 10 217 1.6 3.2 0.00 0.86 0.86 93 1008.0
20260505214735 10 217 1.6 3.2 0.00 0.86 0.86 93 1008.1
20260505214637 10 217 1.6 3.2 0.00 0.86 0.86 93 1008.1
20260505214542 10 217 1.6 3.2 0.00 0.86 0.86 93 1008.0
20260505214435 10 217 1.6 3.2 0.00 0.86 0.86 93 1008.1
20260505214337 10 217 1.6 3.2 0.00 0.86 0.86 93 1008.1
20260505214234 10 217 1.6 3.2 0.00 0.86 0.86 93 1008.0
20260505214137 10 217 1.6 4.8 0.00 0.86 0.86 93 1008.0
20260505214036 10 217 1.6 4.8 0.00 0.86 0.86 93 1008.0
20260505213929 10 217 1.6 4.8 0.00 0.86 0.86 93 1008.1
20260505213828 10 217 1.6 4.8 0.00 0.86 0.86 93 1008.1
20260505213756 10 217 1.6 4.8 0.00 0.86 0.86 93 1008.1
20260505213723 10 217 1.6 4.8 0.00 0.86 0.86 93 1008.1
20260505213648 10 217 1.6 4.8 0.00 0.86 0.86 93 1008.1
20260505213545 10 217 1.6 4.8 0.00 0.86 0.86 93 1008.0
20260505213505 10 217 1.6 4.8 0.00 0.86 0.86 93 1008.1
20260505213226 10 217 1.6 4.8 0.00 0.86 0.86 93 1008.1
20260505213149 10 217 1.6 4.8 0.00 0.86 0.86 93 1008.1
20260505213119 10 217 1.6 4.8 0.00 0.86 0.86 93 1008.1
20260505213013 10 217 1.6 4.8 0.00 0.86 0.86 93 1008.1
20260505212928 10 217 1.6 4.8 0.00 0.86 0.86 93 1008.1
20260505212841 10 220 1.6 4.8 0.00 0.86 0.86 93 1008.2
20260505212811 10 224 1.6 4.8 0.00 0.86 0.86 93 1008.2
20260505212735 10 226 1.6 4.8 0.00 0.86 0.86 93 1008.2
20260505212421 10 228 0.0 4.8 0.00 0.86 0.86 93 1008.2
20260505212314 10 322 0.0 3.2 0.00 0.86 0.86 93 1008.2
20260505212204 10 322 0.0 3.2 0.00 0.86 0.86 93 1008.2
20260505212116 10 322 0.0 3.2 0.00 0.86 0.86 93 1008.1
20260505211908 10 322 0.0 3.2 0.00 0.86 0.86 93 1008.1
20260505211805 10 322 0.0 3.2 0.00 0.86 0.86 93 1008.2
20260505211707 10 322 0.0 3.2 0.00 0.86 0.86 93 1008.1
20260505211608 10 322 0.0 3.2 0.00 0.86 0.86 93 1008.2
20260505211449 10 322 0.0 3.2 0.00 0.86 0.86 93 1008.3
20260505211410 10 322 0.0 0.0 0.00 0.86 0.86 93 1008.3
20260505211340 10 322 0.0 0.0 0.00 0.86 0.86 93 1008.3
20260505211308 10 322 0.0 0.0 0.00 0.86 0.86 93 1008.3
20260505211231 10 322 0.0 0.0 0.00 0.86 0.86 93 1008.3
20260505210915 10 322 0.0 0.0 0.00 0.86 0.86 93 1008.2
20260505210806 10 322 0.0 1.6 0.00 0.86 0.86 93 1008.3
20260505210709 10 322 0.0 1.6 0.00 0.86 0.86 93 1008.2
20260505210605 10 322 0.0 1.6 0.00 0.86 0.86 93 1008.3
20260505210412 10 322 0.0 1.6 0.00 0.86 0.86 93 1008.2
20260505210307 10 322 0.0 1.6 0.00 0.86 0.86 92 1008.2
20260505210241 10 322 0.0 1.6 0.00 0.86 0.86 92 1008.3
20260505210210 10 322 0.0 1.6 0.00 0.86 0.86 92 1008.2
20260505210041 10 322 0.0 1.6 0.00 0.86 0.86 92 1008.2
20260505210006 10 322 0.0 1.6 0.00 0.86 0.86 92 1008.1
20260505205934 10 322 0.0 1.6 0.00 0.86 0.86 92 1008.1
20260505205907 10 322 0.0 3.2 0.00 0.86 0.86 92 1008.1
20260505205827 10 322 0.0 3.2 0.00 0.86 0.86 92 1008.1
20260505205522 11 322 0.0 3.2 0.00 0.86 0.86 92 1008.2
20260505205443 11 322 0.0 3.2 0.00 0.86 0.86 92 1008.1
20260505205409 11 322 0.0 3.2 0.00 0.86 0.86 93 1008.1
20260505205339 11 322 0.0 3.2 0.00 0.86 0.86 93 1008.2
20260505205305 11 322 0.0 3.2 0.00 0.86 0.86 93 1008.2
20260505204959 10 322 0.0 3.2 0.00 0.86 0.86 92 1008.3
20260505204919 10 322 0.0 3.2 0.00 0.86 0.86 92 1008.2
20260505204837 10 322 0.0 3.2 0.00 0.86 0.86 92 1008.1
20260505204804 10 322 0.0 3.2 0.00 0.86 0.86 92 1008.2
20260505204456 10 322 0.0 3.2 0.00 0.86 0.86 92 1008.2
20260505204354 10 322 0.0 3.2 0.00 0.86 0.86 92 1008.1
20260505204253 11 322 0.0 3.2 0.00 0.86 0.86 92 1008.1
20260505204156 11 322 0.0 1.6 0.00 0.86 0.86 92 1008.1
20260505204050 11 322 0.0 1.6 0.00 0.86 0.86 92 1008.0
20260505203951 11 322 0.0 1.6 0.00 0.86 0.86 92 1008.1
20260505203845 11 322 0.0 1.6 0.00 0.86 0.86 92 1008.1
20260505203743 11 322 0.0 1.6 0.00 0.86 0.86 92 1008.1
20260505203649 11 322 0.0 1.6 0.00 0.86 0.86 92 1008.0
20260505203605 11 322 0.0 1.6 0.00 0.86 0.86 92 1008.1
20260505203518 11 322 0.0 1.6 0.00 0.86 0.86 92 1008.1
20260505203444 10 322 0.0 1.6 0.00 0.86 0.86 92 1008.1
20260505203409 10 322 0.0 1.6 0.00 0.86 0.86 92 1008.1
20260505203333 10 322 0.0 1.6 0.00 0.86 0.86 92 1008.1
20260505203254 10 322 0.0 1.6 0.00 0.86 0.86 92 1008.1
20260505202952 10 322 0.0 1.6 0.00 0.86 0.86 92 1008.1
20260505202918 10 322 0.0 1.6 0.00 0.86 0.86 92 1008.1
20260505202838 10 322 0.0 1.6 0.00 0.86 0.86 92 1008.1
20260505202809 10 322 0.0 1.6 0.00 0.86 0.86 92 1008.1
20260505202737 11 322 0.0 1.6 0.00 0.86 0.86 92 1008.1
20260505202422 11 322 0.0 1.6 0.00 0.86 0.86 92 1008.1
20260505202322 11 322 0.0 1.6 0.00 0.86 0.86 91 1008.1
20260505202224 11 322 0.0 1.6 0.00 0.86 0.86 91 1008.1
20260505202124 11 322 0.0 1.6 0.00 0.86 0.86 91 1008.1
20260505202024 11 322 0.0 1.6 0.00 0.86 0.86 92 1008.0
20260505201922 11 322 0.0 1.6 0.00 0.86 0.86 92 1008.1
20260505201820 11 322 0.0 1.6 0.00 0.86 0.86 92 1008.1
20260505201720 11 322 0.0 1.6 0.00 0.86 0.86 92 1008.0
20260505201621 11 322 0.0 1.6 0.00 0.86 0.86 91 1008.1
20260505201521 11 322 0.0 0.0 0.00 0.86 0.86 92 1008.1
20260505201413 11 322 0.0 0.0 0.00 0.86 0.86 92 1008.0
20260505201314 11 322 0.0 0.0 0.00 0.86 0.86 91 1008.1
20260505201215 11 322 0.0 0.0 0.00 0.86 0.86 91 1008.0
20260505201109 11 322 0.0 0.0 0.00 0.86 0.86 92 1008.0
20260505201018 11 322 0.0 0.0 0.00 0.86 0.86 91 1008.0
20260505200907 11 322 0.0 0.0 0.00 0.86 0.86 91 1008.0
20260505200809 11 322 0.0 0.0 0.00 0.86 0.86 91 1008.1
20260505200705 11 322 0.0 0.0 0.00 0.86 0.86 91 1008.0
20260505200604 11 322 0.0 1.6 0.00 0.86 0.86 91 1008.0
20260505200512 11 322 0.0 1.6 0.00 0.86 0.86 91 1007.9
20260505200405 11 322 0.0 1.6 0.00 0.86 0.86 91 1007.9
20260505200304 11 322 0.0 1.6 0.00 0.86 0.86 91 1007.9
20260505200207 11 322 0.0 1.6 0.00 0.86 0.86 91 1007.8
20260505200111 11 322 0.0 1.6 0.00 0.86 0.86 91 1007.8
20260505200013 11 322 0.0 1.6 0.00 0.86 0.86 91 1007.8
20260505195902 11 322 0.0 1.6 0.00 0.86 0.86 91 1007.8
20260505195803 11 322 0.0 1.6 0.00 0.86 0.86 91 1007.7
20260505195705 11 322 0.0 1.6 0.00 0.86 0.86 91 1007.7
20260505195600 11 322 0.0 1.6 0.00 0.86 0.86 91 1007.6
20260505195503 11 322 0.0 1.6 0.00 0.86 0.86 91 1007.6
20260505195355 11 322 0.0 1.6 0.00 0.86 0.86 91 1007.7
20260505195300 11 322 0.0 1.6 0.00 0.86 0.86 91 1007.6
20260505195154 11 322 0.0 1.6 0.00 0.86 0.86 91 1007.6
20260505195054 11 322 0.0 1.6 0.00 0.86 0.86 90 1007.6
20260505194846 11 322 0.0 3.2 0.00 0.86 0.86 90 1007.6
20260505194751 11 322 0.0 3.2 0.00 0.86 0.86 90 1007.5
20260505194646 11 322 0.0 3.2 0.00 0.86 0.86 90 1007.6
20260505194544 11 322 0.0 3.2 0.00 0.86 0.86 90 1007.6
20260505194336 11 322 0.0 3.2 0.00 0.86 0.86 90 1007.5
20260505194237 11 322 0.0 3.2 0.00 0.86 0.86 90 1007.6
20260505194138 11 322 0.0 4.8 0.00 0.86 0.86 90 1007.6
20260505194036 11 316 0.0 4.8 0.00 0.86 0.86 90 1007.6
20260505193939 11 316 0.0 4.8 0.00 0.86 0.86 90 1007.5
20260505193831 11 316 0.0 4.8 0.00 0.86 0.86 90 1007.6
20260505193731 11 275 1.6 4.8 0.00 0.86 0.86 90 1007.5
20260505193628 11 274 1.6 6.4 0.00 0.86 0.86 90 1007.4
20260505193545 11 275 1.6 6.4 0.00 0.86 0.86 90 1007.4
20260505193451 11 275 1.6 6.4 0.00 0.86 0.86 90 1007.4
20260505193417 11 275 1.6 6.4 0.00 0.86 0.86 90 1007.4
20260505193344 11 275 1.6 6.4 0.00 0.86 0.86 90 1007.4
20260505193304 11 307 1.6 6.4 0.00 0.86 0.86 90 1007.4
20260505193226 11 309 3.2 8.0 0.00 0.86 0.86 90 1007.3
20260505192918 11 309 3.2 14.5 0.00 0.86 0.86 90 1007.3
20260505192817 11 309 3.2 14.5 0.03 0.86 0.86 90 1007.3
20260505192719 11 309 3.2 14.5 0.03 0.86 0.86 90 1007.3
20260505192617 11 281 3.2 14.5 0.03 0.86 0.86 90 1007.2
20260505192520 11 281 3.2 14.5 0.03 0.86 0.86 91 1007.2
20260505192410 11 331 3.2 14.5 0.03 0.86 0.86 90 1007.2
20260505192306 11 331 4.8 14.5 0.03 0.86 0.86 90 1007.3
20260505192205 11 332 4.8 14.5 0.03 0.86 0.86 90 1007.3
20260505192106 11 332 4.8 14.5 0.03 0.86 0.86 90 1007.3
20260505192014 11 290 4.8 14.5 0.03 0.86 0.86 90 1007.3
20260505191904 11 319 4.8 12.9 0.03 0.86 0.86 90 1007.3
20260505191805 11 300 4.8 12.9 0.03 0.86 0.86 90 1007.2
20260505191705 11 319 4.8 12.9 0.05 0.86 0.86 90 1007.2
20260505191602 11 326 6.4 14.5 0.05 0.86 0.86 90 1007.3
20260505191503 11 324 6.4 14.5 0.05 0.86 0.86 90 1007.3
20260505191402 11 328 6.4 14.5 0.05 0.86 0.86 90 1007.3
20260505191301 11 312 6.4 14.5 0.05 0.86 0.86 90 1007.3
20260505191206 11 314 6.4 14.5 0.05 0.86 0.86 90 1007.3
20260505191127 11 291 6.4 14.5 0.05 0.86 0.86 90 1007.3
20260505191043 11 307 6.4 14.5 0.08 0.86 0.86 90 1007.3
20260505190955 11 291 8.0 14.5 0.08 0.86 0.86 90 1007.3
20260505190916 11 324 8.0 14.5 0.08 0.86 0.86 90 1007.3
20260505190834 11 333 8.0 14.5 0.08 0.86 0.86 90 1007.3
20260505190752 11 322 8.0 14.5 0.10 0.86 0.86 90 1007.3
20260505190701 11 319 6.4 14.5 0.10 0.86 0.86 90 1007.4
20260505190400 11 322 8.0 17.7 0.10 0.86 0.86 90 1007.3
20260505190301 11 325 8.0 17.7 0.13 0.86 0.86 90 1007.3
20260505190155 11 334 8.0 17.7 0.13 0.86 0.86 90 1007.2
20260505190051 11 300 6.4 17.7 0.15 0.86 0.86 90 1007.2
20260505185952 11 313 6.4 17.7 0.15 0.86 0.86 90 1007.2
20260505185850 11 326 6.4 17.7 0.18 0.86 0.86 89 1007.3
20260505185750 11 328 6.4 17.7 0.18 0.86 0.86 89 1007.3
20260505185650 11 342 6.4 17.7 0.20 0.86 0.86 89 1007.3
20260505185548 11 272 6.4 17.7 0.23 0.86 0.86 89 1007.3
20260505185448 11 338 6.4 17.7 0.23 0.86 0.86 89 1007.3
20260505185350 11 295 6.4 12.9 0.25 0.86 0.86 89 1007.3
20260505185247 11 311 6.4 14.5 0.28 0.86 0.86 89 1007.3
20260505185146 11 292 6.4 14.5 0.30 0.86 0.86 89 1007.4
20260505185045 11 290 6.4 14.5 0.33 0.86 0.86 89 1007.5
20260505184949 11 324 6.4 14.5 0.33 0.86 0.86 89 1007.4
20260505184848 11 324 6.4 14.5 0.38 0.86 0.86 89 1007.4
20260505184749 11 319 6.4 14.5 0.43 0.86 0.86 89 1007.6
20260505184709 11 290 6.4 14.5 0.46 0.86 0.86 89 1007.6
20260505184637 11 302 4.8 14.5 0.48 0.86 0.86 89 1007.6
20260505184543 11 297 4.8 14.5 0.51 0.86 0.86 89 1007.6
20260505184457 11 295 3.2 14.5 0.56 0.86 0.86 89 1007.8
20260505184421 11 276 3.2 12.9 0.61 0.86 0.86 89 1007.8
20260505184335 11 289 1.6 12.9 0.66 0.86 0.86 89 1007.8
20260505184050 11 310 1.6 12.9 0.71 0.86 0.86 89 1007.8
20260505183957 11 317 1.6 8.0 0.76 0.86 0.86 89 1007.8
20260505183913 11 329 0.0 8.0 0.79 0.86 0.86 90 1007.8
20260505183839 11 336 0.0 6.4 0.79 0.86 0.86 89 1007.8
20260505183756 11 336 0.0 6.4 0.81 0.86 0.86 89 1007.9
20260505183726 11 337 0.0 6.4 0.86 0.86 0.86 89 1007.8
20260505183641 11 337 0.0 6.4 0.86 0.86 0.86 89 1007.9
20260505183334 11 337 0.0 6.4 0.86 0.86 0.86 89 1007.9
20260505183233 11 337 0.0 6.4 0.86 0.86 0.86 89 1007.9
20260505183129 11 337 0.0 6.4 0.86 0.86 0.86 89 1008.0
20260505183028 11 337 0.0 6.4 0.86 0.86 0.86 89 1008.0
20260505182940 11 337 0.0 6.4 0.86 0.86 0.84 89 1008.1
20260505182859 11 337 0.0 11.3 0.84 0.84 0.84 89 1008.1
20260505182822 11 36 0.0 11.3 0.84 0.84 0.84 89 1008.1
20260505182744 11 36 0.0 11.3 0.84 0.84 0.84 89 1008.1
20260505182712 11 36 0.0 11.3 0.84 0.84 0.84 89 1008.1
20260505182627 11 36 0.0 11.3 0.84 0.84 0.84 89 1008.1
20260505182315 11 39 0.0 11.3 0.84 0.84 0.84 89 1007.9
20260505182215 11 39 1.6 11.3 0.84 0.84 0.84 89 1007.9
20260505182118 11 39 1.6 11.3 0.84 0.84 0.84 88 1007.9
20260505182020 11 39 3.2 11.3 0.84 0.84 0.84 88 1007.9
20260505181810 11 39 4.8 14.5 0.84 0.84 0.81 88 1007.8
20260505181710 11 38 4.8 19.3 0.81 0.81 0.81 88 1007.9
20260505181606 11 29 6.4 19.3 0.81 0.81 0.81 88 1007.8
20260505181522 11 331 6.4 19.3 0.81 0.81 0.81 88 1007.9
20260505181404 12 288 8.0 19.3 0.81 0.81 0.79 88 1007.9
20260505181304 12 248 8.0 19.3 0.79 0.79 0.79 88 1007.9
20260505181208 12 306 9.7 19.3 0.79 0.79 0.79 88 1007.9
20260505181058 12 276 9.7 19.3 0.79 0.79 0.79 88 1007.8
20260505180952 12 298 11.3 19.3 0.79 0.79 0.79 87 1007.8
20260505180855 12 264 11.3 19.3 0.79 0.79 0.79 87 1007.8
20260505180754 12 257 11.3 19.3 0.79 0.79 0.79 87 1007.8
20260505180657 12 286 11.3 19.3 0.79 0.79 0.76 87 1007.8
20260505180549 12 220 12.9 20.9 0.76 0.76 0.76 87 1007.9
20260505180443 12 269 12.9 22.5 0.76 0.76 0.76 87 1007.9
20260505180346 12 268 12.9 33.8 0.76 0.76 0.74 87 1007.8
20260505180244 12 228 12.9 33.8 0.74 0.74 0.74 87 1007.9
20260505180146 12 265 12.9 33.8 0.71 0.71 0.71 87 1007.9
20260505180042 12 246 12.9 33.8 0.71 0.71 0.71 86 1007.8
20260505175944 12 262 12.9 33.8 0.71 0.71 0.69 86 1007.7
20260505175842 12 238 12.9 33.8 0.69 0.69 0.66 86 1007.9
20260505175741 12 294 14.5 33.8 0.66 0.66 0.66 86 1007.8
20260505175643 12 274 14.5 33.8 0.64 0.64 0.64 86 1007.7
20260505175536 12 278 14.5 33.8 0.64 0.64 0.61 86 1007.7
20260505175435 12 295 14.5 33.8 0.61 0.61 0.61 85 1007.6
20260505175335 12 280 14.5 29.0 0.61 0.61 0.58 85 1007.7
20260505175236 12 269 14.5 29.0 0.58 0.58 0.56 85 1007.7
20260505175136 12 240 14.5 29.0 0.56 0.56 0.56 84 1007.6
20260505175035 12 252 14.5 29.0 0.53 0.53 0.51 84 1007.6
20260505174934 12 288 14.5 29.0 0.51 0.51 0.48 83 1007.5
20260505174833 12 295 14.5 29.0 0.46 0.46 0.43 83 1007.6
20260505174740 12 284 14.5 29.0 0.43 0.43 0.43 83 1007.6
20260505174647 12 274 12.9 27.4 0.41 0.41 0.41 83 1007.6
20260505174612 13 259 12.9 27.4 0.38 0.38 0.36 82 1007.6
20260505174527 13 293 12.9 30.6 0.33 0.33 0.33 81 1007.6
20260505174446 13 231 14.5 35.4 0.30 0.30 0.25 81 1007.7
20260505174403 13 290 12.9 35.4 0.23 0.23 0.23 81 1007.6
20260505174320 13 255 12.9 35.4 0.20 0.20 0.18 80 1007.8
20260505174247 13 307 12.9 35.4 0.15 0.15 0.13 80 1007.8
20260505174158 13 253 12.9 35.4 0.10 0.10 0.08 78 1007.8
20260505173903 14 269 14.5 35.4 0.08 0.08 0.05 77 1007.9
20260505173831 14 286 14.5 35.4 0.05 0.05 0.05 77 1007.9
20260505173750 14 262 16.1 35.4 0.05 0.05 0.03 76 1007.8
20260505173713 15 231 16.1 35.4 0.00 0.00 0.00 75 1007.8
20260505173632 15 249 16.1 35.4 0.00 0.00 0.00 74 1007.8
20260505173328 15 216 14.5 32.2 0.00 0.00 0.00 71 1007.8
20260505173229 15 259 14.5 32.2 0.00 0.00 0.00 70 1007.7
20260505173125 15 215 12.9 32.2 0.00 0.00 0.00 68 1007.7
20260505173031 16 243 12.9 32.2 0.00 0.00 0.00 67 1007.8
20260505172927 16 226 11.3 32.2 0.00 0.00 0.00 66 1007.8
20260505172822 16 216 9.7 32.2 0.00 0.00 0.00 65 1007.8
20260505172724 16 248 8.0 32.2 0.00 0.00 0.00 65 1007.6
20260505172624 16 229 6.4 32.2 0.00 0.00 0.00 66 1007.7
20260505172524 16 236 3.2 29.0 0.00 0.00 0.00 68 1007.6
20260505172421 16 237 1.6 14.5 0.00 0.00 0.00 68 1007.4
20260505172315 16 281 1.6 6.4 0.00 0.00 0.00 67 1006.9
20260505172216 16 325 1.6 6.4 0.00 0.00 0.00 67 1006.6
20260505172113 17 325 1.6 6.4 0.00 0.00 0.00 67 1006.6
20260505172019 17 322 1.6 8.0 0.00 0.00 0.00 67 1006.6
20260505171807 17 321 1.6 8.0 0.00 0.00 0.00 67 1006.4
20260505171707 17 333 1.6 8.0 0.00 0.00 0.00 67 1006.5
20260505171612 17 328 3.2 9.7 0.00 0.00 0.00 67 1006.4
20260505171518 17 326 3.2 9.7 0.00 0.00 0.00 67 1006.5
20260505171305 17 326 3.2 9.7 0.00 0.00 0.00 67 1006.4
20260505171215 17 326 3.2 9.7 0.00 0.00 0.00 67 1006.4
20260505171106 17 326 3.2 9.7 0.00 0.00 0.00 67 1006.4
20260505171012 17 333 3.2 9.7 0.00 0.00 0.00 67 1006.5
20260505170757 17 2 3.2 9.7 0.00 0.00 0.00 67 1006.4
20260505170654 17 327 1.6 9.7 0.00 0.00 0.00 67 1006.4
20260505170555 17 332 1.6 9.7 0.00 0.00 0.00 67 1006.3
20260505170455 17 329 1.6 6.4 0.00 0.00 0.00 67 1006.4
20260505170256 17 328 1.6 6.4 0.00 0.00 0.00 67 1006.3
20260505170156 17 331 1.6 8.0 0.00 0.00 0.00 67 1006.4
20260505170104 17 331 1.6 8.0 0.00 0.00 0.00 66 1006.4
20260505165954 17 331 3.2 8.0 0.00 0.00 0.00 66 1006.3
20260505165743 17 35 3.2 8.0 0.00 0.00 0.00 67 1006.3
20260505165644 17 35 3.2 8.0 0.00 0.00 0.00 66 1006.3
20260505165543 17 35 3.2 8.0 0.00 0.00 0.00 66 1006.3
20260505165444 17 30 3.2 8.0 0.00 0.00 0.00 66 1006.3
20260505165345 17 32 3.2 8.0 0.00 0.00 0.00 66 1006.4
20260505165240 17 35 3.2 8.0 0.00 0.00 0.00 66 1006.4
20260505165136 17 34 3.2 8.0 0.00 0.00 0.00 66 1006.4
20260505165038 17 12 3.2 8.0 0.00 0.00 0.00 66 1006.3
20260505164939 17 351 3.2 8.0 0.00 0.00 0.00 66 1006.3
20260505164839 17 347 3.2 8.0 0.00 0.00 0.00 66 1006.4
20260505164738 17 21 3.2 8.0 0.00 0.00 0.00 66 1006.4
20260505164636 17 32 3.2 8.0 0.00 0.00 0.00 66 1006.4
20260505164536 17 32 3.2 12.9 0.00 0.00 0.00 67 1006.4
20260505164437 17 21 3.2 12.9 0.00 0.00 0.00 66 1006.5
20260505164337 17 44 3.2 12.9 0.00 0.00 0.00 67 1006.4
20260505164234 17 54 3.2 12.9 0.00 0.00 0.00 67 1006.5
20260505164135 17 36 3.2 12.9 0.00 0.00 0.00 67 1006.5
20260505164032 17 35 3.2 12.9 0.00 0.00 0.00 67 1006.5
20260505163934 17 50 3.2 12.9 0.00 0.00 0.00 67 1006.5
20260505163830 17 58 3.2 12.9 0.00 0.00 0.00 67 1006.4
20260505163730 17 25 3.2 12.9 0.00 0.00 0.00 67 1006.5
20260505163629 17 48 3.2 12.9 0.00 0.00 0.00 68 1006.5
20260505163535 17 44 3.2 9.7 0.00 0.00 0.00 68 1006.5
20260505163446 17 324 3.2 11.3 0.00 0.00 0.00 68 1006.5
20260505163358 17 38 3.2 14.5 0.00 0.00 0.00 68 1006.5
20260505163312 17 24 4.8 14.5 0.00 0.00 0.00 68 1006.5
20260505163239 17 21 4.8 14.5 0.00 0.00 0.00 68 1006.5
20260505163207 17 22 4.8 14.5 0.00 0.00 0.00 67 1006.5
20260505163120 17 47 4.8 14.5 0.00 0.00 0.00 67 1006.5
20260505162816 17 44 4.8 14.5 0.00 0.00 0.00 67 1006.6
20260505162715 17 46 6.4 14.5 0.00 0.00 0.00 66 1006.6
20260505162617 17 19 6.4 14.5 0.00 0.00 0.00 67 1006.7
20260505162518 17 18 4.8 14.5 0.00 0.00 0.00 67 1006.7
20260505162413 17 32 4.8 14.5 0.00 0.00 0.00 66 1006.7
20260505162311 17 35 6.4 14.5 0.00 0.00 0.00 66 1006.7
20260505162209 17 356 6.4 17.7 0.00 0.00 0.00 66 1006.7
20260505162118 17 16 6.4 17.7 0.00 0.00 0.00 67 1006.7
20260505162021 17 16 8.0 19.3 0.00 0.00 0.00 66 1006.6
20260505161921 17 18 8.0 19.3 0.00 0.00 0.00 66 1006.7
20260505161843 17 45 8.0 19.3 0.00 0.00 0.00 66 1006.8
20260505161811 17 30 8.0 19.3 0.00 0.00 0.00 66 1006.6
20260505161735 17 80 8.0 19.3 0.00 0.00 0.00 66 1006.8
20260505161640 18 49 8.0 19.3 0.00 0.00 0.00 66 1006.7
20260505161554 18 44 9.7 24.1 0.00 0.00 0.00 66 1006.7
20260505161507 18 40 8.0 24.1 0.00 0.00 0.00 66 1006.7
20260505161430 18 30 8.0 24.1 0.00 0.00 0.00 66 1006.8
20260505161341 18 48 8.0 24.1 0.00 0.00 0.00 66 1006.8
20260505161303 18 25 8.0 24.1 0.00 0.00 0.00 66 1006.8
20260505161218 18 51 8.0 24.1 0.00 0.00 0.00 66 1006.8
20260505160925 18 18 8.0 24.1 0.00 0.00 0.00 66 1006.8
20260505160852 18 66 8.0 24.1 0.00 0.00 0.00 66 1006.8
20260505160812 18 32 8.0 24.1 0.00 0.00 0.00 66 1006.8
20260505160713 18 35 8.0 19.3 0.00 0.00 0.00 66 1006.8
20260505160426 18 54 8.0 20.9 0.00 0.00 0.00 66 1006.8
20260505160346 18 56 8.0 20.9 0.00 0.00 0.00 66 1006.8
20260505160308 18 24 8.0 20.9 0.00 0.00 0.00 66 1006.8
20260505160237 18 20 8.0 20.9 0.00 0.00 0.00 66 1006.8
20260505160147 18 27 6.4 20.9 0.00 0.00 0.00 66 1006.8
20260505160110 18 60 8.0 20.9 0.00 0.00 0.00 67 1006.7
20260505153233 18 18 4.8 12.9 0.00 0.00 0.00 67 1006.9
20260505153132 18 325 4.8 12.9 0.00 0.00 0.00 67 1006.9
20260505153032 18 356 4.8 12.9 0.00 0.00 0.00 67 1007.0
20260505152930 18 44 4.8 11.3 0.00 0.00 0.00 67 1007.0
20260505152733 18 30 6.4 11.3 0.00 0.00 0.00 67 1007.0
20260505152631 18 6 6.4 11.3 0.00 0.00 0.00 67 1007.0
20260505152531 18 54 4.8 11.3 0.00 0.00 0.00 67 1007.0
20260505152430 18 59 6.4 11.3 0.00 0.00 0.00 67 1007.1
20260505152229 18 347 6.4 14.5 0.00 0.00 0.00 68 1007.1
20260505152135 18 42 4.8 14.5 0.00 0.00 0.00 68 1007.1
20260505152030 18 47 4.8 14.5 0.00 0.00 0.00 68 1007.2
20260505151948 18 20 4.8 14.5 0.00 0.00 0.00 68 1007.2
20260505151820 18 56 4.8 14.5 0.00 0.00 0.00 68 1007.2
20260505151748 18 85 4.8 14.5 0.00 0.00 0.00 68 1007.1
20260505151711 18 68 4.8 14.5 0.00 0.00 0.00 68 1007.1
20260505151625 18 11 4.8 14.5 0.00 0.00 0.00 68 1007.3
20260505151542 18 62 3.2 14.5 0.00 0.00 0.00 68 1007.1
20260505151226 18 329 4.8 16.1 0.00 0.00 0.00 68 1007.1
20260505151127 18 329 4.8 16.1 0.00 0.00 0.00 68 1007.1
20260505151042 18 14 4.8 17.7 0.00 0.00 0.00 68 1007.2
20260505150955 18 2 6.4 17.7 0.00 0.00 0.00 67 1007.1
20260505150823 18 37 6.4 19.3 0.00 0.00 0.00 67 1007.2
20260505150741 18 11 6.4 19.3 0.00 0.00 0.00 67 1007.2
20260505150701 18 59 6.4 19.3 0.00 0.00 0.00 67 1007.3
20260505150616 18 36 6.4 19.3 0.00 0.00 0.00 67 1007.3
20260505150313 18 16 6.4 19.3 0.00 0.00 0.00 66 1007.2
20260505150209 18 63 8.0 19.3 0.00 0.00 0.00 66 1007.2
20260505150114 18 34 6.4 19.3 0.00 0.00 0.00 65 1007.2
20260505140628 18 317 4.8 19.3 0.00 0.00 0.00 61 1007.4
20260505140533 18 5 3.2 19.3 0.00 0.00 0.00 62 1007.4
20260505140427 18 347 3.2 16.1 0.00 0.00 0.00 62 1007.4
20260505140328 18 7 3.2 14.5 0.00 0.00 0.00 62 1007.4
20260505140224 18 329 3.2 17.7 0.00 0.00 0.00 62 1007.4
20260505140125 18 324 3.2 17.7 0.00 0.00 0.00 62 1007.5
20260505130257 19 328 4.8 17.7 0.00 0.00 0.00 58 1008.0
20260505130159 19 324 4.8 17.7 0.00 0.00 0.00 58 1008.0
20260505130104 19 34 4.8 17.7 0.00 0.00 0.00 59 1008.0
20260505124953 20 331 6.4 22.5 0.00 0.00 0.00 57 1008.0
20260505124851 20 342 6.4 22.5 0.00 0.00 0.00 57 1008.0
20260505124751 20 343 4.8 22.5 0.00 0.00 0.00 58 1008.0
20260505124655 20 321 4.8 14.5 0.00 0.00 0.00 58 1008.0
20260505124555 20 13 4.8 16.1 0.00 0.00 0.00 58 1007.9
20260505124451 20 21 4.8 16.1 0.00 0.00 0.00 57 1008.0
20260505124407 20 25 4.8 16.1 0.00 0.00 0.00 58 1008.0
20260505124325 20 36 4.8 16.1 0.00 0.00 0.00 59 1008.0
20260505124243 20 315 4.8 16.1 0.00 0.00 0.00 58 1007.9
20260505124206 20 325 4.8 16.1 0.00 0.00 0.00 57 1008.0
20260505124124 20 319 4.8 16.1 0.00 0.00 0.00 59 1007.9
20260505124049 20 329 6.4 16.1 0.00 0.00 0.00 58 1008.0
20260505123747 20 327 6.4 17.7 0.00 0.00 0.00 59 1008.0
20260505123650 20 329 6.4 17.7 0.00 0.00 0.00 58 1008.0
20260505123545 20 25 6.4 17.7 0.00 0.00 0.00 57 1008.0
20260505123447 20 324 8.0 17.7 0.00 0.00 0.00 58 1007.9
20260505123348 19 318 8.0 17.7 0.00 0.00 0.00 58 1008.0
20260505123247 19 335 8.0 17.7 0.00 0.00 0.00 58 1008.0
20260505123143 19 321 8.0 17.7 0.00 0.00 0.00 58 1008.0
20260505123045 19 333 6.4 17.7 0.00 0.00 0.00 57 1008.0
20260505122945 19 319 6.4 17.7 0.00 0.00 0.00 58 1008.0
20260505122846 19 312 6.4 17.7 0.00 0.00 0.00 58 1008.0
20260505122742 19 317 6.4 16.1 0.00 0.00 0.00 58 1008.0
20260505122642 19 314 6.4 16.1 0.00 0.00 0.00 58 1008.0
20260505122539 19 324 6.4 16.1 0.00 0.00 0.00 57 1008.1
20260505122443 19 322 6.4 16.1 0.00 0.00 0.00 58 1008.1
20260505122342 19 318 4.8 14.5 0.00 0.00 0.00 58 1008.1
20260505122241 19 332 6.4 20.9 0.00 0.00 0.00 59 1008.0
20260505122139 19 329 6.4 20.9 0.00 0.00 0.00 59 1008.1
20260505122041 19 333 6.4 20.9 0.00 0.00 0.00 59 1008.1
20260505121942 19 326 8.0 20.9 0.00 0.00 0.00 59 1008.0
20260505121839 19 322 8.0 20.9 0.00 0.00 0.00 59 1008.0
20260505121739 19 329 6.4 20.9 0.00 0.00 0.00 59 1008.1
20260505121641 19 332 6.4 20.9 0.00 0.00 0.00 58 1008.1
20260505121554 19 331 6.4 20.9 0.00 0.00 0.00 59 1008.0
20260505121445 19 327 6.4 20.9 0.00 0.00 0.00 58 1008.1
20260505121340 19 331 6.4 20.9 0.00 0.00 0.00 58 1008.1
20260505121238 19 332 6.4 17.7 0.00 0.00 0.00 59 1008.1
20260505121139 19 327 6.4 17.7 0.00 0.00 0.00 59 1008.1
20260505121036 19 329 6.4 17.7 0.00 0.00 0.00 59 1008.2
20260505120935 19 319 4.8 17.7 0.00 0.00 0.00 59 1008.1
20260505120838 19 338 4.8 17.7 0.00 0.00 0.00 59 1008.1
20260505120739 20 333 4.8 17.7 0.00 0.00 0.00 59 1008.1
20260505120645 20 317 4.8 12.9 0.00 0.00 0.00 60 1008.2
20260505120533 20 327 4.8 12.9 0.00 0.00 0.00 59 1008.2
20260505120433 20 320 3.2 12.9 0.00 0.00 0.00 59 1008.1
20260505120333 20 299 4.8 20.9 0.00 0.00 0.00 60 1008.1
20260505120238 20 315 4.8 20.9 0.00 0.00 0.00 59 1008.1
20260505120136 20 329 4.8 20.9 0.00 0.00 0.00 59 1008.1
20260505120037 20 340 4.8 20.9 0.00 0.00 0.00 59 1008.1
20260505115931 20 359 6.4 20.9 0.00 0.00 0.00 59 1008.2
20260505115836 20 333 6.4 20.9 0.00 0.00 0.00 58 1008.1
20260505115735 20 349 8.0 20.9 0.00 0.00 0.00 58 1008.2
20260505115632 20 329 8.0 20.9 0.00 0.00 0.00 58 1008.1
20260505115536 20 326 9.7 20.9 0.00 0.00 0.00 58 1008.1
20260505115451 20 359 9.7 20.9 0.00 0.00 0.00 58 1008.2
20260505115412 20 327 11.3 19.3 0.00 0.00 0.00 57 1008.1
20260505115324 20 326 11.3 20.9 0.00 0.00 0.00 57 1008.1
20260505115245 20 330 11.3 20.9 0.00 0.00 0.00 57 1008.1
20260505115158 20 314 11.3 20.9 0.00 0.00 0.00 58 1008.2
20260505115116 20 333 11.3 20.9 0.00 0.00 0.00 57 1008.1
20260505115032 20 327 11.3 20.9 0.00 0.00 0.00 57 1008.1
20260505114731 20 325 9.7 20.9 0.00 0.00 0.00 56 1008.2
20260505114632 20 333 9.7 20.9 0.00 0.00 0.00 57 1008.1
20260505114534 20 327 9.7 20.9 0.00 0.00 0.00 57 1008.2
20260505114431 20 320 8.0 20.9 0.00 0.00 0.00 56 1008.2
20260505114331 20 326 6.4 20.9 0.00 0.00 0.00 56 1008.2
20260505114235 20 318 6.4 19.3 0.00 0.00 0.00 57 1008.2
20260505114134 20 316 4.8 19.3 0.00 0.00 0.00 56 1008.3
20260505114033 21 314 4.8 19.3 0.00 0.00 0.00 57 1008.3
20260505113933 21 328 4.8 12.9 0.00 0.00 0.00 57 1008.3
20260505113832 21 324 3.2 11.3 0.00 0.00 0.00 57 1008.3
20260505113732 21 14 3.2 11.3 0.00 0.00 0.00 56 1008.3
20260505113632 21 313 3.2 11.3 0.00 0.00 0.00 55 1008.3
20260505113530 21 299 3.2 11.3 0.00 0.00 0.00 54 1008.3
20260505113427 20 333 3.2 11.3 0.00 0.00 0.00 55 1008.2
20260505113329 20 21 3.2 11.3 0.00 0.00 0.00 52 1008.3
20260505113229 20 43 3.2 11.3 0.00 0.00 0.00 51 1008.2
20260505113127 20 72 3.2 11.3 0.00 0.00 0.00 52 1008.2
20260505113031 20 88 3.2 9.7 0.00 0.00 0.00 51 1008.2
20260505112930 20 75 3.2 12.9 0.00 0.00 0.00 50 1008.3
20260505112827 20 42 4.8 12.9 0.00 0.00 0.00 51 1008.3
20260505112727 20 42 4.8 12.9 0.00 0.00 0.00 51 1008.3
20260505112634 20 60 4.8 12.9 0.00 0.00 0.00 52 1008.3
20260505112531 20 46 4.8 12.9 0.00 0.00 0.00 52 1008.3
20260505112428 20 42 4.8 12.9 0.00 0.00 0.00 52 1008.3
20260505112322 20 49 3.2 12.9 0.00 0.00 0.00 54 1008.3
20260505112219 20 56 3.2 12.9 0.00 0.00 0.00 55 1008.4
20260505112121 20 50 3.2 12.9 0.00 0.00 0.00 54 1008.3
20260505112027 20 58 3.2 12.9 0.00 0.00 0.00 54 1008.4
20260505111923 20 84 1.6 8.0 0.00 0.00 0.00 56 1008.3
20260505111826 20 35 1.6 8.0 0.00 0.00 0.00 56 1008.4
20260505111723 20 353 1.6 8.0 0.00 0.00 0.00 56 1008.4
20260505111620 20 5 1.6 8.0 0.00 0.00 0.00 56 1008.3
20260505111528 20 5 1.6 8.0 0.00 0.00 0.00 56 1008.4
20260505111427 20 4 1.6 8.0 0.00 0.00 0.00 57 1008.4
20260505111325 20 12 3.2 9.7 0.00 0.00 0.00 58 1008.5
20260505111219 19 55 3.2 9.7 0.00 0.00 0.00 58 1008.4
20260505111123 19 55 3.2 9.7 0.00 0.00 0.00 58 1008.4
20260505111020 19 18 3.2 16.1 0.00 0.00 0.00 59 1008.3
20260505110921 19 32 3.2 16.1 0.00 0.00 0.00 58 1008.4
20260505110821 19 32 3.2 16.1 0.00 0.00 0.00 59 1008.3
20260505110721 19 32 3.2 16.1 0.00 0.00 0.00 58 1008.4
20260505110627 19 33 3.2 16.1 0.00 0.00 0.00 58 1008.4
20260505110528 19 33 3.2 16.1 0.00 0.00 0.00 58 1008.4
20260505110414 19 33 4.8 16.1 0.00 0.00 0.00 59 1008.3
20260505110318 19 29 4.8 16.1 0.00 0.00 0.00 58 1008.4
20260505110214 19 30 4.8 16.1 0.00 0.00 0.00 59 1008.4
20260505110138 19 34 3.2 16.1 0.00 0.00 0.00 58 1008.4
20260505102135 20 98 6.4 12.9 0.00 0.00 0.00 55 1008.8
20260505102032 20 127 6.4 12.9 0.00 0.00 0.00 55 1008.8
20260505101932 20 80 6.4 12.9 0.00 0.00 0.00 56 1008.8
20260505101835 20 75 6.4 12.9 0.00 0.00 0.00 56 1008.8
20260505101734 20 82 6.4 12.9 0.00 0.00 0.00 55 1008.9
20260505101633 20 101 4.8 11.3 0.00 0.00 0.00 55 1008.8
20260505101530 20 125 4.8 9.7 0.00 0.00 0.00 55 1008.9
20260505101430 20 120 4.8 9.7 0.00 0.00 0.00 55 1008.9
20260505101331 20 121 4.8 11.3 0.00 0.00 0.00 56 1008.9
20260505101230 20 90 6.4 11.3 0.00 0.00 0.00 55 1008.9
20260505101124 20 72 6.4 12.9 0.00 0.00 0.00 55 1008.9
20260505101025 20 106 6.4 12.9 0.00 0.00 0.00 56 1008.9
20260505100924 20 82 6.4 12.9 0.00 0.00 0.00 56 1008.9
20260505100826 19 71 6.4 12.9 0.00 0.00 0.00 57 1008.9
20260505100727 19 44 8.0 12.9 0.00 0.00 0.00 56 1008.9
20260505100618 19 93 8.0 12.9 0.00 0.00 0.00 57 1009.0
20260505100523 19 75 8.0 12.9 0.00 0.00 0.00 56 1009.0
20260505100420 19 85 8.0 12.9 0.00 0.00 0.00 57 1009.0
20260505100317 19 62 8.0 14.5 0.00 0.00 0.00 57 1009.0
20260505100220 19 85 8.0 17.7 0.00 0.00 0.00 57 1009.0
20260505100122 19 82 8.0 17.7 0.00 0.00 0.00 58 1009.0
20260505100022 19 73 8.0 17.7 0.00 0.00 0.00 59 1009.0
20260505095907 19 74 8.0 17.7 0.00 0.00 0.00 58 1009.1
20260505095812 19 59 8.0 17.7 0.00 0.00 0.00 57 1009.1
20260505095706 19 71 8.0 17.7 0.00 0.00 0.00 58 1009.0
20260505095604 19 104 9.7 17.7 0.00 0.00 0.00 57 1009.1
20260505095510 19 102 8.0 17.7 0.00 0.00 0.00 58 1009.1
20260505095408 19 71 8.0 17.7 0.00 0.00 0.00 58 1009.1
20260505095312 19 70 6.4 17.7 0.00 0.00 0.00 59 1009.0
20260505095204 19 94 6.4 16.1 0.00 0.00 0.00 58 1009.1
20260505095108 19 103 6.4 16.1 0.00 0.00 0.00 58 1009.1
20260505095013 19 76 4.8 16.1 0.00 0.00 0.00 57 1009.1
20260505094908 19 77 4.8 16.1 0.00 0.00 0.00 57 1009.1
20260505094805 19 94 3.2 16.1 0.00 0.00 0.00 58 1009.1
20260505094706 19 73 3.2 12.9 0.00 0.00 0.00 58 1009.1
20260505094604 19 62 3.2 12.9 0.00 0.00 0.00 58 1009.1
20260505094516 19 72 3.2 9.7 0.00 0.00 0.00 59 1009.1
20260505094406 19 303 3.2 9.7 0.00 0.00 0.00 59 1009.1
20260505094309 19 303 4.8 9.7 0.00 0.00 0.00 59 1009.1
20260505094203 19 31 4.8 9.7 0.00 0.00 0.00 61 1009.2
20260505094058 18 61 6.4 12.9 0.00 0.00 0.00 60 1009.2
20260505094001 18 85 6.4 12.9 0.00 0.00 0.00 60 1009.2
20260505093857 18 91 6.4 12.9 0.00 0.00 0.00 60 1009.1
20260505093755 18 94 6.4 12.9 0.00 0.00 0.00 59 1009.2
20260505093654 18 70 6.4 12.9 0.00 0.00 0.00 58 1009.2
20260505093551 18 76 4.8 12.9 0.00 0.00 0.00 58 1009.3
20260505093452 18 77 4.8 12.9 0.00 0.00 0.00 59 1009.2
20260505093353 18 75 4.8 12.9 0.00 0.00 0.00 59 1009.2
20260505093252 18 105 6.4 14.5 0.00 0.00 0.00 59 1009.3
20260505093145 18 98 4.8 14.5 0.00 0.00 0.00 61 1009.3
20260505093050 18 84 4.8 14.5 0.00 0.00 0.00 61 1009.2
20260505092950 18 82 4.8 14.5 0.00 0.00 0.00 61 1009.2
20260505092844 18 96 4.8 14.5 0.00 0.00 0.00 60 1009.2
20260505092747 18 101 4.8 14.5 0.00 0.00 0.00 60 1009.3
20260505092643 18 83 4.8 14.5 0.00 0.00 0.00 61 1009.2
20260505092541 18 66 4.8 14.5 0.00 0.00 0.00 60 1009.3
20260505092441 18 66 4.8 14.5 0.00 0.00 0.00 60 1009.3
20260505092339 18 78 4.8 14.5 0.00 0.00 0.00 60 1009.3
20260505092135 18 47 4.8 12.9 0.00 0.00 0.00 60 1009.2
20260505092036 18 47 4.8 12.9 0.00 0.00 0.00 61 1009.3
20260505091935 18 55 4.8 12.9 0.00 0.00 0.00 61 1009.3
20260505091837 18 105 4.8 12.9 0.00 0.00 0.00 61 1009.3
20260505091737 18 71 4.8 14.5 0.00 0.00 0.00 61 1009.4
20260505091632 18 99 4.8 14.5 0.00 0.00 0.00 60 1009.4
20260505091533 18 130 4.8 14.5 0.00 0.00 0.00 60 1009.4
20260505091435 18 115 4.8 14.5 0.00 0.00 0.00 62 1009.4
20260505091337 18 106 4.8 14.5 0.00 0.00 0.00 62 1009.4
20260505091134 18 69 4.8 14.5 0.00 0.00 0.00 62 1009.4
20260505091033 18 82 4.8 14.5 0.00 0.00 0.00 61 1009.4
20260505090934 18 82 4.8 14.5 0.00 0.00 0.00 61 1009.4
20260505090831 18 92 4.8 14.5 0.00 0.00 0.00 61 1009.5
20260505090634 18 77 4.8 12.9 0.00 0.00 0.00 64 1009.5
20260505090533 18 78 4.8 14.5 0.00 0.00 0.00 64 1009.5
20260505090432 18 79 4.8 14.5 0.00 0.00 0.00 62 1009.5
20260505090359 18 79 6.4 14.5 0.00 0.00 0.00 63 1009.5
20260505090236 18 99 6.4 14.5 0.00 0.00 0.00 61 1009.6
20260505090155 18 70 6.4 14.5 0.00 0.00 0.00 61 1009.7
20260505090104 18 91 6.4 14.5 0.00 0.00 0.00 63 1009.7
20260505090018 18 90 6.4 14.5 0.00 0.00 0.00 63 1009.7
20260505085840 18 82 6.4 14.5 0.00 0.00 0.00 63 1009.7
20260505085552 18 97 6.4 11.3 0.00 0.00 0.00 63 1009.7
20260505085501 18 87 6.4 11.3 0.00 0.00 0.00 63 1009.7
20260505085422 18 80 6.4 11.3 0.00 0.00 0.00 62 1009.7
20260505085232 18 93 4.8 11.3 0.00 0.00 0.00 63 1009.8
20260505085157 18 90 4.8 11.3 0.00 0.00 0.00 63 1009.8
20260505085058 18 96 4.8 11.3 0.00 0.00 0.00 62 1009.8
20260505085019 18 120 3.2 11.3 0.00 0.00 0.00 63 1009.7
20260505084939 18 58 3.2 11.3 0.00 0.00 0.00 65 1009.8
20260505084620 18 85 3.2 11.3 0.00 0.00 0.00 66 1009.8
20260505084521 18 101 3.2 8.0 0.00 0.00 0.00 66 1009.8
20260505084413 17 99 3.2 8.0 0.00 0.00 0.00 66 1009.8
20260505084312 17 116 3.2 8.0 0.00 0.00 0.00 66 1009.8
20260505084110 17 92 3.2 8.0 0.00 0.00 0.00 68 1009.9
20260505084017 17 81 3.2 8.0 0.00 0.00 0.00 69 1009.8
20260505083903 17 73 1.6 8.0 0.00 0.00 0.00 69 1009.8
20260505083806 17 77 1.6 8.0 0.00 0.00 0.00 69 1009.9
20260505083710 17 104 1.6 6.4 0.00 0.00 0.00 69 1009.8
20260505083603 17 141 3.2 6.4 0.00 0.00 0.00 69 1009.8
20260505083511 17 153 3.2 6.4 0.00 0.00 0.00 69 1009.8
20260505083405 17 158 3.2 6.4 0.00 0.00 0.00 69 1009.8
20260505083303 17 145 3.2 8.0 0.00 0.00 0.00 69 1009.9
20260505083204 17 145 3.2 8.0 0.00 0.00 0.00 69 1009.9
20260505083058 17 141 3.2 9.7 0.00 0.00 0.00 69 1009.9
20260505082957 17 120 3.2 9.7 0.00 0.00 0.00 69 1009.9
20260505082858 17 120 4.8 9.7 0.00 0.00 0.00 68 1010.0
20260505082757 17 118 4.8 9.7 0.00 0.00 0.00 68 1010.0
20260505082659 17 112 4.8 9.7 0.00 0.00 0.00 68 1009.9
20260505082551 17 97 4.8 9.7 0.00 0.00 0.00 69 1009.9
20260505082450 17 104 4.8 9.7 0.00 0.00 0.00 69 1009.9
20260505082349 17 113 4.8 9.7 0.00 0.00 0.00 70 1009.9
20260505082249 17 98 4.8 9.7 0.00 0.00 0.00 69 1009.9
20260505082152 17 66 4.8 8.0 0.00 0.00 0.00 70 1009.9
20260505082050 17 103 4.8 11.3 0.00 0.00 0.00 70 1009.9
20260505081945 17 106 4.8 11.3 0.00 0.00 0.00 70 1009.9
20260505081843 17 96 4.8 11.3 0.00 0.00 0.00 71 1009.9
20260505081743 16 125 4.8 11.3 0.00 0.00 0.00 71 1009.9
20260505081643 16 113 4.8 11.3 0.00 0.00 0.00 71 1009.9
20260505081540 16 106 4.8 11.3 0.00 0.00 0.00 70 1009.9
20260505081438 17 101 4.8 11.3 0.00 0.00 0.00 70 1009.9
20260505081338 16 96 3.2 11.3 0.00 0.00 0.00 70 1009.9
20260505081238 16 111 3.2 11.3 0.00 0.00 0.00 70 1009.9
20260505081140 17 102 3.2 11.3 0.00 0.00 0.00 70 1010.0
20260505081033 17 76 1.6 6.4 0.00 0.00 0.00 71 1009.9
20260505080933 17 96 1.6 6.4 0.00 0.00 0.00 71 1010.0
20260505080835 16 100 1.6 6.4 0.00 0.00 0.00 72 1010.0
20260505080733 16 112 3.2 6.4 0.00 0.00 0.00 73 1009.9
20260505080632 16 111 3.2 6.4 0.00 0.00 0.00 72 1010.0
20260505080529 16 141 3.2 6.4 0.00 0.00 0.00 72 1010.0
20260505080430 16 117 3.2 6.4 0.00 0.00 0.00 73 1010.0
20260505080332 16 58 3.2 6.4 0.00 0.00 0.00 73 1010.0
20260505080234 16 58 3.2 6.4 0.00 0.00 0.00 73 1010.0
20260505080132 16 57 3.2 6.4 0.00 0.00 0.00 73 1010.1
20260505080033 16 55 3.2 6.4 0.00 0.00 0.00 73 1010.1
20260505075927 16 59 3.2 6.4 0.00 0.00 0.00 73 1010.1
20260505075824 16 99 3.2 6.4 0.00 0.00 0.00 73 1010.1
20260505075723 16 92 3.2 6.4 0.00 0.00 0.00 73 1010.0
20260505075623 16 115 3.2 6.4 0.00 0.00 0.00 73 1010.1
20260505075521 16 111 1.6 6.4 0.00 0.00 0.00 72 1010.1
20260505075420 16 112 1.6 6.4 0.00 0.00 0.00 72 1010.1
20260505075320 16 113 1.6 6.4 0.00 0.00 0.00 73 1010.1
20260505075220 16 76 1.6 4.8 0.00 0.00 0.00 73 1010.1
20260505075125 16 329 1.6 6.4 0.00 0.00 0.00 73 1010.1
20260505075017 16 329 1.6 6.4 0.00 0.00 0.00 74 1010.1
20260505074907 16 346 1.6 6.4 0.00 0.00 0.00 74 1010.2
20260505074809 16 347 1.6 6.4 0.00 0.00 0.00 74 1010.2
20260505074606 16 347 1.6 6.4 0.00 0.00 0.00 75 1010.1
20260505074511 16 54 1.6 6.4 0.00 0.00 0.00 75 1010.2
20260505074405 16 62 3.2 9.7 0.00 0.00 0.00 75 1010.2
20260505074305 16 63 3.2 9.7 0.00 0.00 0.00 75 1010.1
20260505074207 15 55 3.2 9.7 0.00 0.00 0.00 75 1010.2
20260505074107 15 51 3.2 9.7 0.00 0.00 0.00 75 1010.2
20260505074000 15 51 3.2 9.7 0.00 0.00 0.00 75 1010.2
20260505073902 15 51 3.2 9.7 0.00 0.00 0.00 75 1010.3
20260505073802 15 52 3.2 9.7 0.00 0.00 0.00 76 1010.1
20260505073708 15 61 3.2 9.7 0.00 0.00 0.00 77 1010.2
20260505073602 15 16 3.2 9.7 0.00 0.00 0.00 76 1010.2
20260505073503 15 325 3.2 9.7 0.00 0.00 0.00 77 1010.3
20260505073401 15 326 1.6 6.4 0.00 0.00 0.00 76 1010.2
20260505073258 15 290 1.6 6.4 0.00 0.00 0.00 76 1010.3
20260505073159 15 317 1.6 6.4 0.00 0.00 0.00 75 1010.2
20260505073058 15 318 3.2 8.0 0.00 0.00 0.00 76 1010.3
20260505072957 15 305 3.2 8.0 0.00 0.00 0.00 76 1010.3
20260505072853 15 287 3.2 8.0 0.00 0.00 0.00 77 1010.3
20260505072757 15 329 3.2 8.0 0.00 0.00 0.00 78 1010.2
20260505072700 15 329 3.2 8.0 0.00 0.00 0.00 77 1010.3
20260505072550 15 327 3.2 8.0 0.00 0.00 0.00 78 1010.3
20260505072450 15 314 3.2 8.0 0.00 0.00 0.00 79 1010.3
20260505072345 15 305 3.2 8.0 0.00 0.00 0.00 78 1010.3
20260505072246 15 305 3.2 8.0 0.00 0.00 0.00 78 1010.4
20260505072144 15 322 1.6 8.0 0.00 0.00 0.00 78 1010.4
20260505072046 15 326 1.6 8.0 0.00 0.00 0.00 79 1010.4
20260505071943 15 322 1.6 8.0 0.00 0.00 0.00 79 1010.4
20260505071843 15 350 1.6 8.0 0.00 0.00 0.00 80 1010.5
20260505071744 15 350 1.6 8.0 0.00 0.00 0.00 80 1010.4
20260505071642 14 18 1.6 8.0 0.00 0.00 0.00 80 1010.4
20260505071542 14 6 1.6 9.7 0.00 0.00 0.00 79 1010.4
20260505071441 14 318 3.2 9.7 0.00 0.00 0.00 80 1010.4
20260505071340 14 334 3.2 9.7 0.00 0.00 0.00 80 1010.5
20260505071239 14 334 3.2 9.7 0.00 0.00 0.00 80 1010.5
20260505071140 14 331 3.2 9.7 0.00 0.00 0.00 80 1010.4
20260505071039 14 331 3.2 9.7 0.00 0.00 0.00 80 1010.5
20260505070937 14 330 3.2 9.7 0.00 0.00 0.00 80 1010.4
20260505070837 14 329 4.8 9.7 0.00 0.00 0.00 81 1010.4
20260505070733 14 329 4.8 9.7 0.00 0.00 0.00 81 1010.4
20260505070634 14 327 4.8 9.7 0.00 0.00 0.00 80 1010.4
20260505070534 14 333 4.8 9.7 0.00 0.00 0.00 80 1010.4
20260505070435 14 326 3.2 9.7 0.00 0.00 0.00 81 1010.4
20260505070339 13 307 3.2 6.4 0.00 0.00 0.00 81 1010.5
20260505070232 13 302 3.2 6.4 0.00 0.00 0.00 81 1010.5
20260505070134 13 320 3.2 6.4 0.00 0.00 0.00 81 1010.5
20260505070037 13 330 3.2 6.4 0.00 0.00 0.00 80 1010.4
20260505065935 13 329 1.6 6.4 0.00 0.00 0.00 81 1010.4
20260505065837 13 327 1.6 6.4 0.00 0.00 0.00 81 1010.4
20260505065730 13 329 1.6 6.4 0.00 0.00 0.00 81 1010.4
20260505065630 13 324 1.6 6.4 0.00 0.00 0.00 81 1010.5
20260505065530 13 324 1.6 6.4 0.00 0.00 0.00 81 1010.5
20260505065431 13 324 1.6 6.4 0.00 0.00 0.00 81 1010.4
20260505065329 13 324 1.6 6.4 0.00 0.00 0.00 81 1010.4
20260505065231 13 331 1.6 6.4 0.00 0.00 0.00 81 1010.5
20260505065144 13 329 1.6 6.4 0.00 0.00 0.00 81 1010.4
20260505065107 13 331 1.6 6.4 0.00 0.00 0.00 82 1010.5
20260505065022 13 331 1.6 8.0 0.00 0.00 0.00 81 1010.5
20260505064949 13 331 1.6 8.0 0.00 0.00 0.00 81 1010.5
20260505064918 13 331 1.6 8.0 0.00 0.00 0.00 81 1010.5
20260505064615 13 331 3.2 8.0 0.00 0.00 0.00 81 1010.5
20260505064519 13 331 3.2 8.0 0.00 0.00 0.00 81 1010.5
20260505064415 13 331 3.2 8.0 0.00 0.00 0.00 81 1010.5
20260505064316 13 331 3.2 8.0 0.00 0.00 0.00 81 1010.5
20260505064215 13 331 3.2 8.0 0.00 0.00 0.00 81 1010.5
20260505064113 13 329 3.2 8.0 0.00 0.00 0.00 82 1010.5
20260505064017 13 331 1.6 8.0 0.00 0.00 0.00 82 1010.6
20260505063913 13 329 1.6 8.0 0.00 0.00 0.00 81 1010.5
20260505063818 13 329 1.6 8.0 0.00 0.00 0.00 81 1010.6
20260505063714 13 330 1.6 8.0 0.00 0.00 0.00 81 1010.6
20260505063608 13 328 1.6 8.0 0.00 0.00 0.00 81 1010.6
20260505063520 13 333 1.6 6.4 0.00 0.00 0.00 82 1010.6
20260505063413 13 333 1.6 6.4 0.00 0.00 0.00 82 1010.5
20260505063307 13 335 1.6 6.4 0.00 0.00 0.00 82 1010.6
20260505063207 13 335 1.6 6.4 0.00 0.00 0.00 82 1010.6
20260505063106 13 335 1.6 6.4 0.00 0.00 0.00 82 1010.6
20260505063010 13 6 1.6 8.0 0.00 0.00 0.00 82 1010.6
20260505062908 13 6 1.6 8.0 0.00 0.00 0.00 81 1010.6
20260505062808 13 6 1.6 8.0 0.00 0.00 0.00 82 1010.6
20260505062707 13 6 1.6 8.0 0.00 0.00 0.00 82 1010.6
20260505062606 13 329 1.6 8.0 0.00 0.00 0.00 82 1010.6
20260505062514 13 329 1.6 8.0 0.00 0.00 0.00 82 1010.6
20260505062405 13 338 1.6 8.0 0.00 0.00 0.00 82 1010.7
20260505062308 13 42 1.6 8.0 0.00 0.00 0.00 82 1010.6
20260505062206 13 67 1.6 8.0 0.00 0.00 0.00 82 1010.7
20260505062104 13 67 1.6 8.0 0.00 0.00 0.00 83 1010.6
20260505062005 13 40 1.6 8.0 0.00 0.00 0.00 83 1010.6
20260505061905 13 326 1.6 8.0 0.00 0.00 0.00 83 1010.6
20260505061807 13 326 1.6 8.0 0.00 0.00 0.00 83 1010.6
20260505061703 13 325 1.6 8.0 0.00 0.00 0.00 82 1010.7
20260505061604 13 323 0.0 8.0 0.00 0.00 0.00 83 1010.7
20260505061459 13 333 0.0 4.8 0.00 0.00 0.00 83 1010.7
20260505061426 13 333 0.0 4.8 0.00 0.00 0.00 82 1010.7
20260505061358 13 333 0.0 4.8 0.00 0.00 0.00 83 1010.7
20260505061318 13 21 0.0 4.8 0.00 0.00 0.00 83 1010.7
20260505061238 13 21 1.6 4.8 0.00 0.00 0.00 82 1010.7
20260505061156 13 21 1.6 4.8 0.00 0.00 0.00 82 1010.6
20260505061119 13 21 1.6 4.8 0.00 0.00 0.00 82 1010.7
20260505061045 13 14 1.6 4.8 0.00 0.00 0.00 82 1010.7
20260505061009 13 338 1.6 6.4 0.00 0.00 0.00 83 1010.7
20260505060724 13 337 1.6 6.4 0.00 0.00 0.00 83 1010.7
20260505060639 13 337 1.6 8.0 0.00 0.00 0.00 83 1010.7
20260505060600 13 337 1.6 8.0 0.00 0.00 0.00 83 1010.7
20260505060529 13 336 1.6 8.0 0.00 0.00 0.00 83 1010.7
20260505060447 13 333 1.6 8.0 0.00 0.00 0.00 83 1010.8
20260505060149 13 332 1.6 8.0 0.00 0.00 0.00 83 1010.8
20260505060059 13 332 1.6 8.0 0.00 0.00 0.00 83 1010.8
20260505060011 13 248 1.6 8.0 0.00 0.00 0.00 82 1010.8
20260505055931 13 239 1.6 8.0 0.00 0.00 0.00 82 1010.8
20260505055854 13 253 1.6 8.0 0.00 0.00 0.00 82 1010.8
20260505055536 13 217 1.6 6.4 0.00 0.00 0.00 83 1010.9
20260505055431 13 253 1.6 6.4 0.00 0.00 0.00 83 1010.8
20260505055333 13 253 1.6 9.7 0.00 0.00 0.00 83 1010.8
20260505055231 13 253 1.6 9.7 0.00 0.00 0.00 83 1010.8
20260505055132 13 222 3.2 9.7 0.00 0.00 0.00 83 1010.8
20260505055033 13 322 3.2 9.7 0.00 0.00 0.00 83 1010.8
20260505054940 13 322 3.2 9.7 0.00 0.00 0.00 83 1010.8
20260505054846 13 321 3.2 9.7 0.00 0.00 0.00 83 1010.8
20260505054802 13 313 3.2 9.7 0.00 0.00 0.00 83 1010.7
20260505054710 13 313 3.2 9.7 0.00 0.00 0.00 82 1010.7
20260505054625 13 315 3.2 9.7 0.00 0.00 0.00 82 1010.8
20260505054543 13 315 3.2 9.7 0.00 0.00 0.00 82 1010.6
20260505054504 13 326 1.6 9.7 0.00 0.00 0.00 82 1010.7
20260505054417 13 331 1.6 9.7 0.00 0.00 0.00 82 1010.7
20260505054121 13 318 1.6 8.0 0.00 0.00 0.00 82 1010.7
20260505054022 13 293 1.6 8.0 0.00 0.00 0.00 82 1010.7
20260505053918 13 285 1.6 8.0 0.00 0.00 0.00 83 1010.7
20260505053815 13 320 1.6 8.0 0.00 0.00 0.00 83 1010.7
20260505053716 13 320 1.6 8.0 0.00 0.00 0.00 83 1010.7
20260505053616 13 321 1.6 9.7 0.00 0.00 0.00 83 1010.7
20260505053518 13 279 1.6 9.7 0.00 0.00 0.00 83 1010.7
20260505053413 13 276 1.6 9.7 0.00 0.00 0.00 83 1010.7
20260505053308 12 267 1.6 9.7 0.00 0.00 0.00 83 1010.6
20260505053207 12 292 1.6 9.7 0.00 0.00 0.00 84 1010.6
20260505053109 12 314 1.6 9.7 0.00 0.00 0.00 84 1010.7
20260505053019 12 324 3.2 9.7 0.00 0.00 0.00 85 1010.7
20260505052910 12 324 3.2 11.3 0.00 0.00 0.00 84 1010.6
20260505052804 12 324 1.6 11.3 0.00 0.00 0.00 84 1010.6
20260505052709 12 326 1.6 11.3 0.00 0.00 0.00 84 1010.6
20260505052608 12 325 3.2 11.3 0.00 0.00 0.00 85 1010.7
20260505052510 12 320 3.2 11.3 0.00 0.00 0.00 84 1010.7
20260505052405 12 320 3.2 11.3 0.00 0.00 0.00 84 1010.6
20260505052307 12 320 3.2 11.3 0.00 0.00 0.00 84 1010.6
20260505052205 12 326 3.2 11.3 0.00 0.00 0.00 84 1010.6
20260505052102 12 321 3.2 11.3 0.00 0.00 0.00 84 1010.6
20260505052005 12 326 1.6 11.3 0.00 0.00 0.00 84 1010.6
20260505051900 12 327 1.6 9.7 0.00 0.00 0.00 84 1010.6
20260505051759 12 333 1.6 9.7 0.00 0.00 0.00 84 1010.6
20260505051658 12 7 1.6 9.7 0.00 0.00 0.00 84 1010.5
20260505051558 12 15 1.6 9.7 0.00 0.00 0.00 84 1010.5
20260505051456 12 331 1.6 9.7 0.00 0.00 0.00 84 1010.6
20260505051356 12 331 1.6 9.7 0.00 0.00 0.00 84 1010.4
20260505051252 12 330 1.6 8.0 0.00 0.00 0.00 85 1010.5
20260505051151 12 332 1.6 4.8 0.00 0.00 0.00 85 1010.6
20260505051047 12 332 1.6 6.4 0.00 0.00 0.00 85 1010.6
20260505050948 12 327 1.6 8.0 0.00 0.00 0.00 85 1010.6
20260505050839 12 328 1.6 8.0 0.00 0.00 0.00 85 1010.5
20260505050742 12 328 0.0 8.0 0.00 0.00 0.00 85 1010.6
20260505050643 12 327 0.0 8.0 0.00 0.00 0.00 85 1010.6
20260505050539 12 328 0.0 8.0 0.00 0.00 0.00 85 1010.5
20260505050437 12 338 0.0 8.0 0.00 0.00 0.00 85 1010.6
20260505050339 12 346 0.0 8.0 0.00 0.00 0.00 85 1010.6
20260505050237 12 346 0.0 8.0 0.00 0.00 0.00 85 1010.6
20260505050135 12 346 0.0 8.0 0.00 0.00 0.00 86 1010.6
20260505041516 12 328 9.7 19.3 0.00 0.00 0.00 85 1010.6
20260505041410 12 325 11.3 19.3 0.00 0.00 0.00 85 1010.7
20260505041305 12 330 11.3 19.3 0.00 0.00 0.00 84 1010.7
20260505041205 12 325 11.3 19.3 0.00 0.00 0.00 84 1010.7
20260505041019 12 319 11.3 19.3 0.00 0.00 0.00 84 1010.8
20260505040900 12 314 11.3 19.3 0.00 0.00 0.00 84 1010.7
20260505040802 12 316 11.3 19.3 0.00 0.00 0.00 84 1010.8
20260505040717 12 349 12.9 20.9 0.00 0.00 0.00 84 1010.8
20260505040629 12 338 12.9 20.9 0.00 0.00 0.00 84 1010.8
20260505040545 12 319 12.9 20.9 0.00 0.00 0.00 84 1010.8
20260505040506 12 320 12.9 20.9 0.00 0.00 0.00 84 1010.8
20260505040425 12 324 12.9 20.9 0.00 0.00 0.00 84 1010.8
20260505040350 12 314 12.9 20.9 0.00 0.00 0.00 84 1010.7
20260505040057 12 326 12.9 22.5 0.00 0.00 0.00 84 1010.8
20260505035956 12 315 12.9 22.5 0.00 0.00 0.00 84 1010.9
20260505035849 12 324 12.9 22.5 0.00 0.00 0.00 84 1010.8
20260505035751 12 324 11.3 22.5 0.00 0.00 0.00 84 1010.8
20260505035649 12 320 11.3 22.5 0.00 0.00 0.00 84 1010.8
20260505035552 12 328 11.3 22.5 0.00 0.00 0.00 84 1010.8
20260505035452 12 320 11.3 22.5 0.00 0.00 0.00 84 1010.8
20260505035348 12 318 11.3 22.5 0.00 0.00 0.00 84 1010.8
20260505035249 12 319 11.3 22.5 0.00 0.00 0.00 84 1010.8
20260505035150 12 329 9.7 22.5 0.00 0.00 0.00 84 1010.8
20260505035050 12 329 9.7 20.9 0.00 0.00 0.00 84 1010.8
20260505034950 12 331 9.7 20.9 0.00 0.00 0.00 84 1010.8
20260505034849 12 340 9.7 20.9 0.00 0.00 0.00 84 1010.8
20260505034751 12 323 8.0 20.9 0.00 0.00 0.00 84 1010.8
20260505034650 12 338 8.0 20.9 0.00 0.00 0.00 84 1010.8
20260505034551 12 335 8.0 20.9 0.00 0.00 0.00 84 1010.8
20260505034452 12 329 8.0 17.7 0.00 0.00 0.00 84 1010.9
20260505034352 12 322 8.0 17.7 0.00 0.00 0.00 83 1010.8
20260505034251 12 343 8.0 17.7 0.00 0.00 0.00 83 1010.8
20260505034209 12 325 6.4 17.7 0.00 0.00 0.00 84 1010.9
20260505034122 12 319 6.4 16.1 0.00 0.00 0.00 84 1010.9
20260505034031 12 328 6.4 16.1 0.00 0.00 0.00 83 1010.9
20260505033959 12 324 6.4 16.1 0.00 0.00 0.00 83 1010.9
20260505033920 12 333 6.4 16.1 0.00 0.00 0.00 83 1010.9
20260505033842 12 319 6.4 16.1 0.00 0.00 0.00 83 1010.9
20260505033546 12 329 6.4 16.1 0.00 0.00 0.00 83 1011.0
20260505033447 12 322 4.8 14.5 0.00 0.00 0.00 83 1011.0
20260505033345 12 320 4.8 14.5 0.00 0.00 0.00 83 1011.0
20260505033249 12 332 4.8 14.5 0.00 0.00 0.00 83 1011.1
20260505033144 12 326 4.8 14.5 0.00 0.00 0.00 83 1011.1
20260505033048 12 332 4.8 14.5 0.00 0.00 0.00 83 1011.1
20260505032942 12 324 4.8 14.5 0.00 0.00 0.00 83 1011.0
20260505032840 12 324 4.8 12.9 0.00 0.00 0.00 82 1011.0
20260505032741 12 333 3.2 12.9 0.00 0.00 0.00 82 1011.0
20260505032642 12 1 4.8 12.9 0.00 0.00 0.00 82 1011.0
20260505032542 12 330 6.4 17.7 0.00 0.00 0.00 82 1011.0
20260505032440 12 328 6.4 17.7 0.00 0.00 0.00 82 1011.1
20260505032338 12 324 6.4 17.7 0.00 0.00 0.00 82 1011.0
20260505032236 12 331 8.0 17.7 0.00 0.00 0.00 82 1011.0
20260505032136 12 319 8.0 17.7 0.00 0.00 0.00 82 1011.1
20260505032039 12 322 8.0 17.7 0.00 0.00 0.00 82 1011.0
20260505031941 12 331 8.0 17.7 0.00 0.00 0.00 82 1011.0
20260505031838 12 329 9.7 17.7 0.00 0.00 0.00 82 1011.0
20260505031740 12 328 11.3 19.3 0.00 0.00 0.00 82 1011.0
20260505031640 12 325 11.3 19.3 0.00 0.00 0.00 82 1011.1
20260505031540 12 325 9.7 19.3 0.00 0.00 0.00 81 1011.0
20260505031442 12 324 11.3 19.3 0.00 0.00 0.00 81 1011.0
20260505031342 12 329 11.3 19.3 0.00 0.00 0.00 81 1011.1
20260505031233 12 324 11.3 19.3 0.00 0.00 0.00 81 1011.1
20260505031134 12 321 11.3 20.9 0.00 0.00 0.00 81 1011.0
20260505031036 12 312 11.3 20.9 0.00 0.00 0.00 81 1011.0
20260505030932 12 321 11.3 20.9 0.00 0.00 0.00 81 1011.0
20260505030837 12 330 12.9 20.9 0.00 0.00 0.00 81 1011.0
20260505030736 12 320 11.3 20.9 0.00 0.00 0.00 81 1011.0
20260505030634 12 331 12.9 20.9 0.00 0.00 0.00 81 1011.0
20260505030548 12 326 12.9 20.9 0.00 0.00 0.00 81 1011.0
20260505030432 12 326 12.9 20.9 0.00 0.00 0.00 81 1011.0
20260505030332 12 331 12.9 20.9 0.00 0.00 0.00 81 1010.9
20260505030235 12 332 12.9 20.9 0.00 0.00 0.00 81 1011.0
20260505030137 12 324 11.3 20.9 0.00 0.00 0.00 81 1011.0
20260505030035 12 317 11.3 20.9 0.00 0.00 0.00 81 1011.0
20260505025931 12 331 11.3 20.9 0.00 0.00 0.00 81 1011.1
20260505025828 12 321 11.3 20.9 0.00 0.00 0.00 81 1011.1
20260505025750 12 324 11.3 20.9 0.00 0.00 0.00 81 1011.0
20260505025718 12 314 11.3 20.9 0.00 0.00 0.00 81 1011.0
20260505025636 12 341 11.3 20.9 0.00 0.00 0.00 81 1011.1
20260505025542 12 327 11.3 19.3 0.00 0.00 0.00 81 1011.1
20260505025459 12 333 11.3 19.3 0.00 0.00 0.00 81 1011.1
20260505025425 12 330 11.3 19.3 0.00 0.00 0.00 81 1011.0
20260505025343 12 322 11.3 19.3 0.00 0.00 0.00 81 1011.1
20260505025030 12 332 12.9 19.3 0.00 0.00 0.00 81 1011.1
20260505024940 12 333 12.9 19.3 0.00 0.00 0.00 81 1011.2
20260505024906 12 331 12.9 19.3 0.00 0.00 0.00 80 1011.2
20260505024827 12 325 12.9 19.3 0.00 0.00 0.00 80 1011.1
20260505024755 12 329 12.9 19.3 0.00 0.00 0.00 80 1011.1
20260505024659 12 307 12.9 19.3 0.00 0.00 0.00 80 1011.1
20260505024612 12 314 12.9 19.3 0.00 0.00 0.00 80 1011.1
20260505024539 12 320 12.9 19.3 0.00 0.00 0.00 80 1011.2
20260505024241 12 324 12.9 20.9 0.00 0.00 0.00 80 1011.1
20260505024205 12 331 12.9 20.9 0.00 0.00 0.00 80 1011.1
20260505024122 12 327 12.9 20.9 0.00 0.00 0.00 80 1011.1
20260505024030 12 324 12.9 20.9 0.00 0.00 0.00 80 1011.1
20260505023951 12 335 12.9 20.9 0.00 0.00 0.00 80 1011.2
20260505023906 12 321 12.9 20.9 0.00 0.00 0.00 80 1011.2
20260505023826 12 326 12.9 20.9 0.00 0.00 0.00 80 1011.2
20260505023739 12 327 12.9 20.9 0.00 0.00 0.00 80 1011.2
20260505023650 12 326 12.9 20.9 0.00 0.00 0.00 80 1011.2
20260505023615 12 329 12.9 20.9 0.00 0.00 0.00 80 1011.2
20260505023536 12 320 11.3 20.9 0.00 0.00 0.00 80 1011.2
20260505023503 12 322 12.9 20.9 0.00 0.00 0.00 80 1011.3
20260505023202 12 327 12.9 20.9 0.00 0.00 0.00 80 1011.3
20260505023111 12 319 12.9 20.9 0.00 0.00 0.00 80 1011.2
20260505023028 12 321 11.3 20.9 0.00 0.00 0.00 80 1011.3
20260505022733 12 321 11.3 20.9 0.00 0.00 0.00 80 1011.3
20260505022700 12 314 11.3 20.9 0.00 0.00 0.00 81 1011.3
20260505022614 12 321 11.3 20.9 0.00 0.00 0.00 81 1011.2
20260505022520 12 321 11.3 20.9 0.00 0.00 0.00 81 1011.3
20260505022440 13 319 11.3 20.9 0.00 0.00 0.00 81 1011.3
20260505022403 13 327 11.3 20.9 0.00 0.00 0.00 81 1011.3
20260505022328 13 311 11.3 20.9 0.00 0.00 0.00 81 1011.4
20260505022023 13 318 11.3 20.9 0.00 0.00 0.00 81 1011.4
20260505021922 13 321 11.3 20.9 0.00 0.00 0.00 80 1011.3
20260505021821 13 316 11.3 20.9 0.00 0.00 0.00 80 1011.3
20260505021726 13 337 11.3 20.9 0.00 0.00 0.00 80 1011.3
20260505021623 13 333 11.3 20.9 0.00 0.00 0.00 80 1011.4
20260505021525 13 329 11.3 20.9 0.00 0.00 0.00 80 1011.3
20260505021422 13 327 11.3 19.3 0.00 0.00 0.00 80 1011.4
20260505021322 13 329 11.3 19.3 0.00 0.00 0.00 80 1011.4
20260505021249 13 334 11.3 19.3 0.00 0.00 0.00 80 1011.4
20260505021210 13 319 11.3 19.3 0.00 0.00 0.00 80 1011.4
20260505021120 13 315 11.3 19.3 0.00 0.00 0.00 80 1011.4
20260505021030 13 327 9.7 19.3 0.00 0.00 0.00 80 1011.4
20260505020952 13 326 9.7 19.3 0.00 0.00 0.00 80 1011.5
20260505020918 13 324 9.7 19.3 0.00 0.00 0.00 80 1011.5
20260505020833 13 326 9.7 19.3 0.00 0.00 0.00 80 1011.4
20260505020522 13 326 9.7 17.7 0.00 0.00 0.00 80 1011.5
20260505020422 13 321 9.7 17.7 0.00 0.00 0.00 80 1011.6
20260505020316 13 321 8.0 17.7 0.00 0.00 0.00 80 1011.6
20260505020218 13 321 8.0 17.7 0.00 0.00 0.00 80 1011.5
20260505020124 13 320 8.0 17.7 0.00 0.00 0.00 80 1011.5
20260505020024 13 328 8.0 16.1 0.00 0.00 0.00 80 1011.6
20260505015917 13 329 8.0 16.1 0.00 0.00 0.00 80 1011.6
20260505015818 13 301 8.0 16.1 0.00 0.00 0.00 80 1011.6
20260505015727 13 326 8.0 16.1 0.00 0.00 0.00 80 1011.5
20260505015649 13 310 8.0 16.1 0.00 0.00 0.00 80 1011.6
20260505015605 13 332 8.0 16.1 0.00 0.00 0.00 80 1011.5
20260505015517 13 324 9.7 16.1 0.00 0.00 0.00 80 1011.5
20260505015441 13 323 9.7 16.1 0.00 0.00 0.00 80 1011.5
20260505015401 13 323 9.7 16.1 0.00 0.00 0.00 80 1011.5
20260505015326 13 323 9.7 16.1 0.00 0.00 0.00 80 1011.4
20260505015028 13 319 9.7 16.1 0.00 0.00 0.00 80 1011.4
20260505014916 13 316 9.7 16.1 0.00 0.00 0.00 80 1011.5
20260505014823 13 327 9.7 16.1 0.00 0.00 0.00 80 1011.5
20260505014717 13 321 9.7 16.1 0.00 0.00 0.00 80 1011.4
20260505014619 13 323 8.0 16.1 0.00 0.00 0.00 80 1011.4